Time,TemperatureF,DewpointF,PressureIn,WindDirection,WindDirectionDegrees,WindSpeedMPH,WindSpeedGustMPH,Humidity,HourlyPrecipIn,Conditions,Clouds,dailyrainin,SoftwareType,DateUTC
2013-01-20 00:00:00,40.9,29.3,29.89,SSE,158,6.3,6.3,63,0.00,,,0.00,WUHU216HW,2013-01-20 05:00:00,
2013-01-20 00:01:00,40.9,29.3,29.89,South,180,4.7,6.3,63,0.00,,,0.00,WUHU216HW,2013-01-20 05:01:00,
2013-01-20 00:03:00,40.9,29.3,29.89,SSW,203,4.0,6.3,63,0.00,,,0.00,WUHU216HW,2013-01-20 05:03:00,
2013-01-20 00:05:00,41.1,29.5,29.89,SSE,158,2.0,6.3,63,0.00,,,0.00,WUHU216HW,2013-01-20 05:05:00,
2013-01-20 00:06:00,41.1,29.5,29.89,SSE,158,2.0,6.3,63,0.00,,,0.00,WUHU216HW,2013-01-20 05:06:00,
2013-01-20 00:07:00,41.1,29.5,29.89,SW,225,2.0,6.3,63,0.00,,,0.00,WUHU216HW,2013-01-20 05:07:00,
2013-01-20 00:08:00,41.1,29.5,29.89,SSW,203,4.0,6.3,63,0.00,,,0.00,WUHU216HW,2013-01-20 05:08:00,
2013-01-20 00:10:00,40.9,29.3,29.89,SSE,158,3.6,4.0,63,0.00,,,0.00,WUHU216HW,2013-01-20 05:10:00,
2013-01-20 00:11:00,40.9,29.3,29.89,South,180,2.0,4.0,63,0.00,,,0.00,WUHU216HW,2013-01-20 05:11:00,
2013-01-20 00:12:00,40.9,29.3,29.89,South,180,2.0,4.0,63,0.00,,,0.00,WUHU216HW,2013-01-20 05:12:00,
2013-01-20 00:13:00,40.9,29.3,29.88,SSW,203,2.9,4.0,63,0.00,,,0.00,WUHU216HW,2013-01-20 05:13:00,
2013-01-20 00:15:00,40.8,29.3,29.88,WSW,248,3.1,4.7,63,0.00,,,0.00,WUHU216HW,2013-01-20 05:15:00,
2013-01-20 00:16:00,40.8,29.3,29.88,South,180,3.4,4.7,63,0.00,,,0.00,WUHU216HW,2013-01-20 05:16:00,
2013-01-20 00:17:00,40.8,29.3,29.88,SW,225,8.7,8.7,63,0.00,,,0.00,WUHU216HW,2013-01-20 05:17:00,
2013-01-20 00:18:00,40.8,29.3,29.88,SSW,203,7.2,8.7,63,0.00,,,0.00,WUHU216HW,2013-01-20 05:18:00,
2013-01-20 00:20:00,40.8,29.3,29.87,South,180,2.5,8.7,63,0.00,,,0.00,WUHU216HW,2013-01-20 05:20:00,
2013-01-20 00:22:00,40.6,29.1,29.87,SSE,158,2.0,8.7,63,0.00,,,0.00,WUHU216HW,2013-01-20 05:22:00,
2013-01-20 00:24:00,40.6,29.1,29.88,South,180,3.6,8.7,63,0.00,,,0.00,WUHU216HW,2013-01-20 05:24:00,
2013-01-20 00:25:00,40.6,29.1,29.87,WSW,248,5.4,9.2,63,0.00,,,0.00,WUHU216HW,2013-01-20 05:25:00,
2013-01-20 00:27:00,40.6,29.1,29.87,SSW,203,10.3,10.3,63,0.00,,,0.00,WUHU216HW,2013-01-20 05:27:00,
2013-01-20 00:28:00,40.6,29.1,29.87,SSW,203,2.2,10.3,63,0.00,,,0.00,WUHU216HW,2013-01-20 05:28:00,
2013-01-20 00:29:00,40.6,29.1,29.87,South,180,5.4,10.3,63,0.00,,,0.00,WUHU216HW,2013-01-20 05:29:00,
2013-01-20 00:31:00,40.6,29.1,29.87,South,180,7.6,10.3,63,0.00,,,0.00,WUHU216HW,2013-01-20 05:31:00,
2013-01-20 00:32:00,40.6,29.1,29.87,South,180,3.4,10.3,63,0.00,,,0.00,WUHU216HW,2013-01-20 05:32:00,
2013-01-20 00:33:00,40.4,28.9,29.87,SSW,203,8.3,10.3,63,0.00,,,0.00,WUHU216HW,2013-01-20 05:33:00,
2013-01-20 00:34:00,40.4,28.9,29.87,South,180,7.2,10.3,63,0.00,,,0.00,WUHU216HW,2013-01-20 05:34:00,
2013-01-20 00:36:00,40.4,29.3,29.87,ESE,113,4.5,8.3,64,0.00,,,0.00,WUHU216HW,2013-01-20 05:36:00,
2013-01-20 00:37:00,40.4,29.3,29.87,ESE,113,4.5,8.3,64,0.00,,,0.00,WUHU216HW,2013-01-20 05:37:00,
2013-01-20 00:38:00,40.2,29.1,29.87,South,180,2.5,8.3,64,0.00,,,0.00,WUHU216HW,2013-01-20 05:38:00,
2013-01-20 00:39:00,40.2,29.1,29.87,SSE,158,1.6,8.3,64,0.00,,,0.00,WUHU216HW,2013-01-20 05:39:00,
2013-01-20 00:41:00,40.2,29.1,29.86,SW,225,4.0,8.3,64,0.00,,,0.00,WUHU216HW,2013-01-20 05:41:00,
2013-01-20 00:42:00,40.0,28.9,29.86,South,180,2.5,7.2,64,0.00,,,0.00,WUHU216HW,2013-01-20 05:42:00,
2013-01-20 00:43:00,40.0,28.9,29.86,SSE,158,2.5,6.9,64,0.00,,,0.00,WUHU216HW,2013-01-20 05:43:00,
2013-01-20 00:44:00,40.0,28.9,29.86,SE,135,6.9,6.9,64,0.00,,,0.00,WUHU216HW,2013-01-20 05:44:00,
2013-01-20 00:46:00,40.0,28.9,29.86,SSE,158,1.3,6.9,64,0.00,,,0.00,WUHU216HW,2013-01-20 05:46:00,
2013-01-20 00:47:00,40.0,28.9,29.86,South,180,3.4,6.9,64,0.00,,,0.00,WUHU216HW,2013-01-20 05:47:00,
2013-01-20 00:48:00,39.9,28.8,29.86,South,180,2.5,6.9,64,0.00,,,0.00,WUHU216HW,2013-01-20 05:48:00,
2013-01-20 00:49:00,39.9,28.8,29.86,SW,225,2.7,6.9,64,0.00,,,0.00,WUHU216HW,2013-01-20 05:49:00,
2013-01-20 00:51:00,39.9,28.8,29.86,South,180,4.7,6.9,64,0.00,,,0.00,WUHU216HW,2013-01-20 05:51:00,
2013-01-20 00:53:00,39.9,28.8,29.85,SSW,203,3.1,6.9,64,0.00,,,0.00,WUHU216HW,2013-01-20 05:53:00,
2013-01-20 00:54:00,39.7,29.0,29.85,SW,225,4.7,4.7,65,0.00,,,0.00,WUHU216HW,2013-01-20 05:54:00,
2013-01-20 00:56:00,39.7,29.0,29.85,ENE,68,2.5,4.7,65,0.00,,,0.00,WUHU216HW,2013-01-20 05:56:00,
2013-01-20 00:58:00,39.7,29.0,29.85,South,180,2.5,4.7,65,0.00,,,0.00,WUHU216HW,2013-01-20 05:58:00,
2013-01-20 00:59:00,39.7,29.0,29.85,South,180,0.9,4.7,65,0.00,,,0.00,WUHU216HW,2013-01-20 05:59:00,
2013-01-20 01:01:00,39.5,28.8,29.85,SW,225,4.9,6.3,65,0.00,,,0.00,WUHU216HW,2013-01-20 06:01:00,
2013-01-20 01:03:00,39.5,28.8,29.85,WSW,248,1.6,6.3,65,0.00,,,0.00,WUHU216HW,2013-01-20 06:03:00,
2013-01-20 01:04:00,39.5,28.8,29.85,SSW,203,2.2,6.3,65,0.00,,,0.00,WUHU216HW,2013-01-20 06:04:00,
2013-01-20 01:07:00,39.3,28.6,29.84,SSW,203,5.1,6.3,65,0.00,,,0.00,WUHU216HW,2013-01-20 06:07:00,
2013-01-20 01:08:00,39.3,29.0,29.84,SSW,203,4.3,8.5,66,0.00,,,0.00,WUHU216HW,2013-01-20 06:08:00,
2013-01-20 01:09:00,39.3,29.0,29.84,SSW,203,2.9,8.5,66,0.00,,,0.00,WUHU216HW,2013-01-20 06:09:00,
2013-01-20 01:12:00,39.3,29.0,29.85,South,180,1.1,8.5,66,0.00,,,0.00,WUHU216HW,2013-01-20 06:12:00,
2013-01-20 01:13:00,39.1,28.8,29.84,SW,225,5.4,8.5,66,0.00,,,0.00,WUHU216HW,2013-01-20 06:13:00,
2013-01-20 01:15:00,39.3,29.0,29.84,West,270,3.4,8.5,66,0.00,,,0.00,WUHU216HW,2013-01-20 06:15:00,
2013-01-20 01:17:00,39.3,29.0,29.84,WSW,248,2.7,6.5,66,0.00,,,0.00,WUHU216HW,2013-01-20 06:17:00,
2013-01-20 01:18:00,39.3,29.0,29.84,WSW,248,2.5,6.5,66,0.00,,,0.00,WUHU216HW,2013-01-20 06:18:00,
2013-01-20 01:19:00,39.3,29.0,29.84,WSW,248,2.5,6.5,66,0.00,,,0.00,WUHU216HW,2013-01-20 06:19:00,
2013-01-20 01:20:00,39.1,28.8,29.84,South,180,3.6,6.5,66,0.00,,,0.00,WUHU216HW,2013-01-20 06:20:00,
2013-01-20 01:22:00,39.1,28.8,29.84,South,180,2.5,6.5,66,0.00,,,0.00,WUHU216HW,2013-01-20 06:22:00,
2013-01-20 01:23:00,39.1,28.8,29.84,SSW,203,3.4,6.5,66,0.00,,,0.00,WUHU216HW,2013-01-20 06:23:00,
2013-01-20 01:24:00,39.1,28.8,29.84,SSW,203,3.4,6.5,66,0.00,,,0.00,WUHU216HW,2013-01-20 06:24:00,
2013-01-20 01:25:00,39.0,28.7,29.84,SSW,203,1.8,4.3,66,0.00,,,0.00,WUHU216HW,2013-01-20 06:25:00,
2013-01-20 01:28:00,39.0,29.0,29.84,SSW,203,4.0,5.1,67,0.00,,,0.00,WUHU216HW,2013-01-20 06:28:00,
2013-01-20 01:29:00,39.1,29.1,29.84,SSE,158,4.0,5.1,67,0.00,,,0.00,WUHU216HW,2013-01-20 06:29:00,
2013-01-20 01:30:00,39.1,29.1,29.84,SSW,203,3.1,5.1,67,0.00,,,0.00,WUHU216HW,2013-01-20 06:30:00,
2013-01-20 01:33:00,39.1,29.1,29.84,SSE,158,3.6,5.1,67,0.00,,,0.00,WUHU216HW,2013-01-20 06:33:00,
2013-01-20 01:34:00,39.1,29.1,29.83,SSW,203,3.6,5.1,67,0.00,,,0.00,WUHU216HW,2013-01-20 06:34:00,
2013-01-20 01:35:00,39.3,29.3,29.83,South,180,6.3,6.3,67,0.00,,,0.00,WUHU216HW,2013-01-20 06:35:00,
2013-01-20 01:38:00,39.1,29.1,29.83,South,180,4.0,6.3,67,0.00,,,0.00,WUHU216HW,2013-01-20 06:38:00,
2013-01-20 01:39:00,39.1,29.1,29.83,South,180,6.0,6.3,67,0.00,,,0.00,WUHU216HW,2013-01-20 06:39:00,
2013-01-20 01:40:00,39.1,29.1,29.83,SSE,158,2.9,6.3,67,0.00,,,0.00,WUHU216HW,2013-01-20 06:40:00,
2013-01-20 01:43:00,39.1,29.1,29.84,SSW,203,4.0,6.9,67,0.00,,,0.00,WUHU216HW,2013-01-20 06:43:00,
2013-01-20 01:44:00,39.1,29.1,29.84,South,180,2.5,6.9,67,0.00,,,0.00,WUHU216HW,2013-01-20 06:44:00,
2013-01-20 01:46:00,39.1,29.1,29.84,SSW,203,3.4,6.9,67,0.00,,,0.00,WUHU216HW,2013-01-20 06:46:00,
2013-01-20 01:48:00,39.1,29.1,29.84,SSW,203,6.0,6.9,67,0.00,,,0.00,WUHU216HW,2013-01-20 06:48:00,
2013-01-20 01:49:00,39.1,29.1,29.84,SSW,203,6.7,6.9,67,0.00,,,0.00,WUHU216HW,2013-01-20 06:49:00,
2013-01-20 01:50:00,39.1,29.1,29.84,SSW,203,6.7,6.9,67,0.00,,,0.00,WUHU216HW,2013-01-20 06:50:00,
2013-01-20 01:51:00,39.1,29.1,29.83,WSW,248,6.3,6.9,67,0.00,,,0.00,WUHU216HW,2013-01-20 06:51:00,
2013-01-20 01:53:00,39.0,29.0,29.84,SSW,203,6.0,7.6,67,0.00,,,0.00,WUHU216HW,2013-01-20 06:53:00,
2013-01-20 01:54:00,39.0,29.0,29.84,SSW,203,2.0,7.6,67,0.00,,,0.00,WUHU216HW,2013-01-20 06:54:00,
2013-01-20 01:55:00,39.0,29.0,29.84,SSW,203,2.0,7.6,67,0.00,,,0.00,WUHU216HW,2013-01-20 06:55:00,
2013-01-20 01:56:00,39.0,29.0,29.84,SSW,203,3.6,7.6,67,0.00,,,0.00,WUHU216HW,2013-01-20 06:56:00,
2013-01-20 01:59:00,39.0,28.7,29.84,SSE,158,1.8,7.6,66,0.00,,,0.00,WUHU216HW,2013-01-20 06:59:00,
2013-01-20 02:00:00,39.0,28.7,29.83,SSW,203,4.7,7.6,66,0.00,,,0.00,WUHU216HW,2013-01-20 07:00:00,
2013-01-20 02:01:00,38.8,28.5,29.83,SW,225,2.9,6.9,66,0.00,,,0.00,WUHU216HW,2013-01-20 07:01:00,
2013-01-20 02:03:00,38.8,28.5,29.84,SSW,203,1.1,4.7,66,0.00,,,0.00,WUHU216HW,2013-01-20 07:03:00,
2013-01-20 02:05:00,38.8,28.5,29.84,West,270,1.1,4.7,66,0.00,,,0.00,WUHU216HW,2013-01-20 07:05:00,
2013-01-20 02:06:00,38.6,28.7,29.84,WSW,248,2.5,4.7,67,0.00,,,0.00,WUHU216HW,2013-01-20 07:06:00,
2013-01-20 02:09:00,38.6,28.7,29.84,SSE,158,2.0,4.7,67,0.00,,,0.00,WUHU216HW,2013-01-20 07:09:00,
2013-01-20 02:10:00,38.4,28.5,29.84,SSW,203,3.8,4.0,67,0.00,,,0.00,WUHU216HW,2013-01-20 07:10:00,
2013-01-20 02:12:00,38.4,28.5,29.84,SE,135,0.9,4.0,67,0.00,,,0.00,WUHU216HW,2013-01-20 07:12:00,
2013-01-20 02:14:00,38.2,28.3,29.84,SW,225,1.8,3.8,67,0.00,,,0.00,WUHU216HW,2013-01-20 07:14:00,
2013-01-20 02:15:00,38.2,28.3,29.84,SW,225,2.5,3.8,67,0.00,,,0.00,WUHU216HW,2013-01-20 07:15:00,
2013-01-20 02:17:00,38.1,28.2,29.84,SW,225,1.3,3.8,67,0.00,,,0.00,WUHU216HW,2013-01-20 07:17:00,
2013-01-20 02:19:00,38.1,28.2,29.84,South,180,1.1,3.8,67,0.00,,,0.00,WUHU216HW,2013-01-20 07:19:00,
2013-01-20 02:20:00,37.9,28.0,29.84,SSW,203,4.0,4.0,67,0.00,,,0.00,WUHU216HW,2013-01-20 07:20:00,
2013-01-20 02:21:00,37.9,28.0,29.84,SSW,203,4.0,4.0,67,0.00,,,0.00,WUHU216HW,2013-01-20 07:21:00,
2013-01-20 02:22:00,37.7,27.8,29.84,SSW,203,1.6,4.0,67,0.00,,,0.00,WUHU216HW,2013-01-20 07:22:00,
2013-01-20 02:24:00,37.5,27.6,29.83,South,180,4.0,4.0,67,0.00,,,0.00,WUHU216HW,2013-01-20 07:24:00,
2013-01-20 02:25:00,37.5,28.3,29.83,SW,225,4.0,4.0,69,0.00,,,0.00,WUHU216HW,2013-01-20 07:25:00,
2013-01-20 02:26:00,37.5,28.3,29.83,SW,225,4.0,4.0,69,0.00,,,0.00,WUHU216HW,2013-01-20 07:26:00,
2013-01-20 02:28:00,37.5,28.0,29.83,SE,135,1.1,4.0,68,0.00,,,0.00,WUHU216HW,2013-01-20 07:28:00,
2013-01-20 02:29:00,37.3,27.8,29.83,South,180,2.5,4.0,68,0.00,,,0.00,WUHU216HW,2013-01-20 07:29:00,
2013-01-20 02:30:00,37.3,27.8,29.83,South,180,1.1,4.0,68,0.00,,,0.00,WUHU216HW,2013-01-20 07:30:00,
2013-01-20 02:31:00,37.3,27.8,29.83,South,180,1.1,4.0,68,0.00,,,0.00,WUHU216HW,2013-01-20 07:31:00,
2013-01-20 02:33:00,37.2,27.7,29.83,SSW,203,1.8,6.0,68,0.00,,,0.00,WUHU216HW,2013-01-20 07:33:00,
2013-01-20 02:34:00,37.2,28.0,29.83,SSE,158,4.9,6.0,69,0.00,,,0.00,WUHU216HW,2013-01-20 07:34:00,
2013-01-20 02:35:00,37.2,28.0,29.83,WSW,248,1.3,6.0,69,0.00,,,0.00,WUHU216HW,2013-01-20 07:35:00,
2013-01-20 02:36:00,37.2,28.0,29.83,WSW,248,1.3,6.0,69,0.00,,,0.00,WUHU216HW,2013-01-20 07:36:00,
2013-01-20 02:38:00,37.2,28.0,29.83,SSW,203,0.9,6.0,69,0.00,,,0.00,WUHU216HW,2013-01-20 07:38:00,
2013-01-20 02:39:00,37.2,28.7,29.84,South,180,4.0,6.0,71,0.00,,,0.00,WUHU216HW,2013-01-20 07:39:00,
2013-01-20 02:41:00,37.2,28.4,29.83,SE,135,2.0,6.0,70,0.00,,,0.00,WUHU216HW,2013-01-20 07:41:00,
2013-01-20 02:43:00,37.0,27.8,29.84,SSW,203,1.3,4.9,69,0.00,,,0.00,WUHU216HW,2013-01-20 07:43:00,
2013-01-20 02:44:00,37.2,28.4,29.83,SW,225,1.8,4.0,70,0.00,,,0.00,WUHU216HW,2013-01-20 07:44:00,
2013-01-20 02:46:00,37.0,28.2,29.83,SSE,158,2.7,4.0,70,0.00,,,0.00,WUHU216HW,2013-01-20 07:46:00,
2013-01-20 02:48:00,37.0,28.2,29.83,South,180,4.7,4.7,70,0.00,,,0.00,WUHU216HW,2013-01-20 07:48:00,
2013-01-20 02:49:00,37.0,28.2,29.82,SSW,203,2.2,4.7,70,0.00,,,0.00,WUHU216HW,2013-01-20 07:49:00,
2013-01-20 02:51:00,37.0,28.2,29.82,SSW,203,3.1,4.7,70,0.00,,,0.00,WUHU216HW,2013-01-20 07:51:00,
2013-01-20 02:53:00,37.0,28.2,29.82,South,180,2.5,4.7,70,0.00,,,0.00,WUHU216HW,2013-01-20 07:53:00,
2013-01-20 02:54:00,36.8,27.7,29.82,SW,225,1.6,4.7,69,0.00,,,0.00,WUHU216HW,2013-01-20 07:54:00,
2013-01-20 02:56:00,36.8,28.0,29.82,South,180,4.5,6.9,70,0.00,,,0.00,WUHU216HW,2013-01-20 07:56:00,
2013-01-20 02:57:00,36.8,28.0,29.82,South,180,4.5,6.9,70,0.00,,,0.00,WUHU216HW,2013-01-20 07:57:00,
2013-01-20 02:58:00,37.0,28.2,29.82,SW,225,4.7,6.9,70,0.00,,,0.00,WUHU216HW,2013-01-20 07:58:00,
2013-01-20 02:59:00,37.0,28.5,29.82,SSW,203,4.9,6.9,71,0.00,,,0.00,WUHU216HW,2013-01-20 07:59:00,
2013-01-20 03:02:00,37.0,28.5,29.82,SSE,158,5.8,6.9,71,0.00,,,0.00,WUHU216HW,2013-01-20 08:02:00,
2013-01-20 03:03:00,37.2,28.7,29.82,South,180,3.4,6.9,71,0.00,,,0.00,WUHU216HW,2013-01-20 08:03:00,
2013-01-20 03:04:00,37.2,28.7,29.82,SSW,203,2.9,6.9,71,0.00,,,0.00,WUHU216HW,2013-01-20 08:04:00,
2013-01-20 03:07:00,37.2,28.7,29.82,SSW,203,1.1,5.8,71,0.00,,,0.00,WUHU216HW,2013-01-20 08:07:00,
2013-01-20 03:08:00,37.0,28.2,29.82,SSW,203,1.8,5.8,70,0.00,,,0.00,WUHU216HW,2013-01-20 08:08:00,
2013-01-20 03:10:00,36.8,28.0,29.82,SE,135,1.6,5.8,70,0.00,,,0.00,WUHU216HW,2013-01-20 08:10:00,
2013-01-20 03:12:00,36.8,28.3,29.82,South,180,6.5,6.5,71,0.00,,,0.00,WUHU216HW,2013-01-20 08:12:00,
2013-01-20 03:14:00,36.6,28.2,29.82,SSE,158,3.6,6.5,71,0.00,,,0.00,WUHU216HW,2013-01-20 08:14:00,
2013-01-20 03:15:00,36.6,28.2,29.82,SW,225,3.4,6.5,71,0.00,,,0.00,WUHU216HW,2013-01-20 08:15:00,
2013-01-20 03:17:00,36.6,28.2,29.82,SW,225,2.9,6.5,71,0.00,,,0.00,WUHU216HW,2013-01-20 08:17:00,
2013-01-20 03:19:00,36.6,28.2,29.81,South,180,1.8,6.5,71,0.00,,,0.00,WUHU216HW,2013-01-20 08:19:00,
2013-01-20 03:20:00,36.6,28.5,29.81,South,180,1.6,6.5,72,0.00,,,0.00,WUHU216HW,2013-01-20 08:20:00,
2013-01-20 03:22:00,36.6,28.2,29.81,SSE,158,4.7,6.3,71,0.00,,,0.00,WUHU216HW,2013-01-20 08:22:00,
2013-01-20 03:24:00,36.6,28.2,29.81,South,180,2.5,6.3,71,0.00,,,0.00,WUHU216HW,2013-01-20 08:24:00,
2013-01-20 03:25:00,36.6,28.2,29.81,South,180,3.4,6.3,71,0.00,,,0.00,WUHU216HW,2013-01-20 08:25:00,
2013-01-20 03:27:00,36.6,28.2,29.81,East,90,4.7,6.3,71,0.00,,,0.00,WUHU216HW,2013-01-20 08:27:00,
2013-01-20 03:28:00,36.6,28.2,29.81,SSW,203,0.9,4.9,71,0.00,,,0.00,WUHU216HW,2013-01-20 08:28:00,
2013-01-20 03:29:00,36.6,28.5,29.81,SSW,203,4.7,4.9,72,0.00,,,0.00,WUHU216HW,2013-01-20 08:29:00,
2013-01-20 03:31:00,36.6,28.5,29.81,SSW,203,7.4,7.4,72,0.00,,,0.00,WUHU216HW,2013-01-20 08:31:00,
2013-01-20 03:32:00,36.8,28.3,29.81,South,180,5.4,7.4,71,0.00,,,0.00,WUHU216HW,2013-01-20 08:32:00,
2013-01-20 03:33:00,36.8,28.3,29.81,South,180,5.4,7.4,71,0.00,,,0.00,WUHU216HW,2013-01-20 08:33:00,
2013-01-20 03:34:00,36.8,28.3,29.81,South,180,4.7,7.4,71,0.00,,,0.00,WUHU216HW,2013-01-20 08:34:00,
2013-01-20 03:36:00,36.8,28.3,29.81,SE,135,1.8,7.4,71,0.00,,,0.00,WUHU216HW,2013-01-20 08:36:00,
2013-01-20 03:37:00,36.8,28.3,29.80,South,180,4.7,7.4,71,0.00,,,0.00,WUHU216HW,2013-01-20 08:37:00,
2013-01-20 03:38:00,36.8,28.7,29.81,SW,225,5.6,7.4,72,0.00,,,0.00,WUHU216HW,2013-01-20 08:38:00,
2013-01-20 03:39:00,36.8,28.7,29.81,SW,225,2.5,7.4,72,0.00,,,0.00,WUHU216HW,2013-01-20 08:39:00,
2013-01-20 03:41:00,36.8,28.7,29.81,SW,225,1.1,5.6,72,0.00,,,0.00,WUHU216HW,2013-01-20 08:41:00,
2013-01-20 03:42:00,36.8,28.3,29.81,SSW,203,3.8,5.6,71,0.00,,,0.00,WUHU216HW,2013-01-20 08:42:00,
2013-01-20 03:43:00,36.8,28.7,29.81,South,180,4.5,5.6,72,0.00,,,0.00,WUHU216HW,2013-01-20 08:43:00,
2013-01-20 03:44:00,36.8,28.3,29.81,South,180,5.6,5.6,71,0.00,,,0.00,WUHU216HW,2013-01-20 08:44:00,
2013-01-20 03:46:00,36.8,28.3,29.81,South,180,1.8,5.6,71,0.00,,,0.00,WUHU216HW,2013-01-20 08:46:00,
2013-01-20 03:47:00,36.8,28.7,29.80,South,180,1.1,5.6,72,0.00,,,0.00,WUHU216HW,2013-01-20 08:47:00,
2013-01-20 03:48:00,36.8,28.7,29.80,SSW,203,2.5,5.6,72,0.00,,,0.00,WUHU216HW,2013-01-20 08:48:00,
2013-01-20 03:49:00,36.8,28.7,29.80,SSW,203,1.1,5.6,72,0.00,,,0.00,WUHU216HW,2013-01-20 08:49:00,
2013-01-20 03:51:00,36.8,28.7,29.80,SSE,158,1.3,5.6,72,0.00,,,0.00,WUHU216HW,2013-01-20 08:51:00,
2013-01-20 03:52:00,36.8,28.3,29.80,South,180,8.5,8.5,71,0.00,,,0.00,WUHU216HW,2013-01-20 08:52:00,
2013-01-20 03:53:00,36.8,28.3,29.80,SSW,203,2.5,8.5,71,0.00,,,0.00,WUHU216HW,2013-01-20 08:53:00,
2013-01-20 03:55:00,36.8,28.3,29.80,SSW,203,3.4,8.5,71,0.00,,,0.00,WUHU216HW,2013-01-20 08:55:00,
2013-01-20 03:57:00,36.8,28.3,29.80,South,180,4.0,8.5,71,0.00,,,0.00,WUHU216HW,2013-01-20 08:57:00,
2013-01-20 03:58:00,36.8,28.3,29.80,SSE,158,2.5,8.5,71,0.00,,,0.00,WUHU216HW,2013-01-20 08:58:00,
2013-01-20 04:00:00,36.8,28.7,29.80,South,180,2.7,8.5,72,0.00,,,0.00,WUHU216HW,2013-01-20 09:00:00,
2013-01-20 04:02:00,36.8,28.7,29.80,SSW,203,4.3,8.5,72,0.00,,,0.00,WUHU216HW,2013-01-20 09:02:00,
2013-01-20 04:03:00,36.8,28.3,29.80,East,90,1.6,4.3,71,0.00,,,0.00,WUHU216HW,2013-01-20 09:03:00,
2013-01-20 04:05:00,36.6,28.8,29.79,SSW,203,2.2,4.3,73,0.00,,,0.00,WUHU216HW,2013-01-20 09:05:00,
2013-01-20 04:07:00,36.6,28.5,29.79,SSE,158,4.9,4.9,72,0.00,,,0.00,WUHU216HW,2013-01-20 09:07:00,
2013-01-20 04:08:00,36.8,29.0,29.79,SE,135,2.2,4.9,73,0.00,,,0.00,WUHU216HW,2013-01-20 09:08:00,
2013-01-20 04:10:00,36.8,29.0,29.79,SW,225,5.4,5.4,73,0.00,,,0.00,WUHU216HW,2013-01-20 09:10:00,
2013-01-20 04:12:00,36.8,28.7,29.79,SSW,203,3.4,5.4,72,0.00,,,0.00,WUHU216HW,2013-01-20 09:12:00,
2013-01-20 04:13:00,36.6,28.5,29.79,South,180,1.1,5.4,72,0.00,,,0.00,WUHU216HW,2013-01-20 09:13:00,
2013-01-20 04:15:00,36.6,28.5,29.79,SSE,158,3.1,5.4,72,0.00,,,0.00,WUHU216HW,2013-01-20 09:15:00,
2013-01-20 04:17:00,36.4,28.3,29.79,WSW,248,4.0,5.4,72,0.00,,,0.00,WUHU216HW,2013-01-20 09:17:00,
2013-01-20 04:18:00,36.4,28.3,29.78,SSW,203,4.0,5.6,72,0.00,,,0.00,WUHU216HW,2013-01-20 09:18:00,
2013-01-20 04:19:00,36.4,28.3,29.78,SSW,203,4.0,5.6,72,0.00,,,0.00,WUHU216HW,2013-01-20 09:19:00,
2013-01-20 04:20:00,36.4,28.6,29.78,South,180,5.4,5.6,73,0.00,,,0.00,WUHU216HW,2013-01-20 09:20:00,
2013-01-20 04:22:00,36.3,28.5,29.78,South,180,3.4,5.6,73,0.00,,,0.00,WUHU216HW,2013-01-20 09:22:00,
2013-01-20 04:24:00,36.1,28.3,29.78,South,180,3.1,7.6,73,0.00,,,0.00,WUHU216HW,2013-01-20 09:24:00,
2013-01-20 04:25:00,36.1,28.3,29.77,SSE,158,3.4,7.6,73,0.00,,,0.00,WUHU216HW,2013-01-20 09:25:00,
2013-01-20 04:27:00,36.1,28.3,29.77,South,180,3.4,7.6,73,0.00,,,0.00,WUHU216HW,2013-01-20 09:27:00,
2013-01-20 04:29:00,35.9,28.5,29.77,SSW,203,2.2,7.6,74,0.00,,,0.00,WUHU216HW,2013-01-20 09:29:00,
2013-01-20 04:30:00,35.7,28.3,29.77,SSW,203,2.7,7.6,74,0.00,,,0.00,WUHU216HW,2013-01-20 09:30:00,
2013-01-20 04:32:00,35.5,28.1,29.77,SSE,158,1.1,4.7,74,0.00,,,0.00,WUHU216HW,2013-01-20 09:32:00,
2013-01-20 04:34:00,35.4,27.7,29.77,SSW,203,2.7,4.7,73,0.00,,,0.00,WUHU216HW,2013-01-20 09:34:00,
2013-01-20 04:35:00,35.4,27.7,29.77,South,180,3.6,3.6,73,0.00,,,0.00,WUHU216HW,2013-01-20 09:35:00,
2013-01-20 04:37:00,35.2,27.5,29.77,South,180,2.7,4.0,73,0.00,,,0.00,WUHU216HW,2013-01-20 09:37:00,
2013-01-20 04:39:00,35.0,27.3,29.77,South,180,3.6,4.0,73,0.00,,,0.00,WUHU216HW,2013-01-20 09:39:00,
2013-01-20 04:40:00,35.0,27.3,29.77,SSW,203,4.7,4.7,73,0.00,,,0.00,WUHU216HW,2013-01-20 09:40:00,
2013-01-20 04:41:00,35.0,27.3,29.77,SW,225,1.8,1.8,73,0.00,,,0.00,WUHU216HW,2013-01-20 09:41:00,
2013-01-20 04:42:00,35.0,27.3,29.77,SW,225,1.8,4.7,73,0.00,,,0.00,WUHU216HW,2013-01-20 09:42:00,
2013-01-20 04:44:00,35.0,27.3,29.77,SW,225,1.8,4.7,73,0.00,,,0.00,WUHU216HW,2013-01-20 09:44:00,
2013-01-20 04:45:00,35.0,27.3,29.77,SW,225,1.8,4.7,73,0.00,,,0.00,WUHU216HW,2013-01-20 09:45:00,
2013-01-20 04:46:00,35.0,27.3,29.77,SW,225,1.8,4.7,73,0.00,,,0.00,WUHU216HW,2013-01-20 09:46:00,
2013-01-20 04:48:00,35.0,27.3,29.77,SW,225,1.8,4.7,73,0.00,,,0.00,WUHU216HW,2013-01-20 09:48:00,
2013-01-20 04:49:00,35.0,27.3,29.77,SW,225,1.8,4.7,73,0.00,,,0.00,WUHU216HW,2013-01-20 09:49:00,
2013-01-20 04:50:00,35.0,27.3,29.77,SW,225,1.8,4.7,73,0.00,,,0.00,WUHU216HW,2013-01-20 09:50:00,
2013-01-20 05:00:00,34.3,26.9,29.76,SSW,203,4.3,4.3,74,0.00,,,0.00,WUHU216HW,2013-01-20 10:00:00,
2013-01-20 05:05:00,34.1,27.0,29.76,SSW,203,3.4,4.3,75,0.00,,,0.00,WUHU216HW,2013-01-20 10:05:00,
2013-01-20 05:06:00,34.1,27.0,29.76,SSW,203,3.4,4.3,75,0.00,,,0.00,WUHU216HW,2013-01-20 10:06:00,
2013-01-20 05:10:00,33.9,27.2,29.75,SW,225,1.8,3.4,76,0.00,,,0.00,WUHU216HW,2013-01-20 10:10:00,
2013-01-20 05:11:00,33.9,26.9,29.75,South,180,1.3,3.4,75,0.00,,,0.00,WUHU216HW,2013-01-20 10:11:00,
2013-01-20 05:15:00,33.7,26.7,29.75,SW,225,4.0,4.0,75,0.00,,,0.00,WUHU216HW,2013-01-20 10:15:00,
2013-01-20 05:16:00,33.7,26.7,29.75,South,180,0.4,4.0,75,0.00,,,0.00,WUHU216HW,2013-01-20 10:16:00,
2013-01-20 05:20:00,33.9,27.2,29.75,SSW,203,1.6,4.0,76,0.00,,,0.00,WUHU216HW,2013-01-20 10:20:00,
2013-01-20 05:21:00,33.7,26.7,29.74,SSE,158,3.1,4.0,75,0.00,,,0.00,WUHU216HW,2013-01-20 10:21:00,
2013-01-20 05:25:00,33.6,26.6,29.74,SSE,158,3.4,3.4,75,0.00,,,0.00,WUHU216HW,2013-01-20 10:25:00,
2013-01-20 05:27:00,33.6,26.9,29.74,South,180,1.6,3.4,76,0.00,,,0.00,WUHU216HW,2013-01-20 10:27:00,
2013-01-20 05:30:00,33.7,27.0,29.74,SW,225,2.0,4.7,76,0.00,,,0.00,WUHU216HW,2013-01-20 10:30:00,
2013-01-20 05:32:00,33.9,27.2,29.74,SSW,203,4.7,4.7,76,0.00,,,0.00,WUHU216HW,2013-01-20 10:32:00,
2013-01-20 05:35:00,33.9,27.5,29.74,WSW,248,2.0,4.7,77,0.00,,,0.00,WUHU216HW,2013-01-20 10:35:00,
2013-01-20 05:36:00,33.9,27.5,29.74,WSW,248,2.0,4.7,77,0.00,,,0.00,WUHU216HW,2013-01-20 10:36:00,
2013-01-20 05:37:00,33.9,27.5,29.74,SW,225,3.4,4.7,77,0.00,,,0.00,WUHU216HW,2013-01-20 10:37:00,
2013-01-20 05:40:00,33.9,27.2,29.74,South,180,4.0,4.7,76,0.00,,,0.00,WUHU216HW,2013-01-20 10:40:00,
2013-01-20 05:41:00,33.9,27.2,29.74,SW,225,2.5,4.7,76,0.00,,,0.00,WUHU216HW,2013-01-20 10:41:00,
2013-01-20 05:42:00,33.9,27.2,29.74,SSW,203,2.2,4.0,76,0.00,,,0.00,WUHU216HW,2013-01-20 10:42:00,
2013-01-20 05:45:00,33.9,27.5,29.74,SSE,158,4.7,4.7,77,0.00,,,0.00,WUHU216HW,2013-01-20 10:45:00,
2013-01-20 05:46:00,33.9,27.5,29.73,SSW,203,4.3,4.7,77,0.00,,,0.00,WUHU216HW,2013-01-20 10:46:00,
2013-01-20 05:47:00,33.9,27.5,29.73,South,180,4.0,4.7,77,0.00,,,0.00,WUHU216HW,2013-01-20 10:47:00,
2013-01-20 05:48:00,33.9,27.5,29.73,South,180,4.0,4.7,77,0.00,,,0.00,WUHU216HW,2013-01-20 10:48:00,
2013-01-20 05:50:00,34.1,27.7,29.73,South,180,5.8,5.8,77,0.00,,,0.00,WUHU216HW,2013-01-20 10:50:00,
2013-01-20 05:51:00,34.1,27.7,29.73,South,180,6.9,6.9,77,0.00,,,0.00,WUHU216HW,2013-01-20 10:51:00,
2013-01-20 05:52:00,34.3,27.9,29.73,SW,225,0.7,6.9,77,0.00,,,0.00,WUHU216HW,2013-01-20 10:52:00,
2013-01-20 05:53:00,34.3,27.9,29.73,SW,225,0.7,6.9,77,0.00,,,0.00,WUHU216HW,2013-01-20 10:53:00,
2013-01-20 05:55:00,34.3,27.9,29.74,South,180,5.4,6.9,77,0.00,,,0.00,WUHU216HW,2013-01-20 10:55:00,
2013-01-20 05:57:00,34.3,27.9,29.73,SSE,158,2.7,6.9,77,0.00,,,0.00,WUHU216HW,2013-01-20 10:57:00,
2013-01-20 05:58:00,34.5,28.4,29.73,SSW,203,3.1,6.9,78,0.00,,,0.00,WUHU216HW,2013-01-20 10:58:00,
2013-01-20 06:00:00,34.5,27.8,29.73,South,180,4.3,6.9,76,0.00,,,0.00,WUHU216HW,2013-01-20 11:00:00,
2013-01-20 06:02:00,34.5,28.1,29.73,SW,225,1.8,5.8,77,0.00,,,0.00,WUHU216HW,2013-01-20 11:02:00,
2013-01-20 06:03:00,34.5,28.1,29.73,SW,225,1.8,5.8,77,0.00,,,0.00,WUHU216HW,2013-01-20 11:03:00,
2013-01-20 06:06:00,34.5,27.8,29.73,SSW,203,6.0,6.0,76,0.00,,,0.00,WUHU216HW,2013-01-20 11:06:00,
2013-01-20 06:07:00,34.6,27.8,29.73,SSW,203,3.6,6.0,76,0.00,,,0.00,WUHU216HW,2013-01-20 11:07:00,
2013-01-20 06:08:00,34.6,27.8,29.73,SSW,203,3.6,6.0,76,0.00,,,0.00,WUHU216HW,2013-01-20 11:08:00,
2013-01-20 06:11:00,34.6,28.2,29.73,SSW,203,0.4,6.0,77,0.00,,,0.00,WUHU216HW,2013-01-20 11:11:00,
2013-01-20 06:12:00,34.5,28.1,29.73,SE,135,2.5,6.0,77,0.00,,,0.00,WUHU216HW,2013-01-20 11:12:00,
2013-01-20 06:13:00,34.5,28.1,29.73,SE,135,2.5,6.0,77,0.00,,,0.00,WUHU216HW,2013-01-20 11:13:00,
2013-01-20 06:16:00,34.3,27.6,29.73,West,270,1.6,3.6,76,0.00,,,0.00,WUHU216HW,2013-01-20 11:16:00,
2013-01-20 06:18:00,34.3,27.6,29.73,SW,225,1.1,3.4,76,0.00,,,0.00,WUHU216HW,2013-01-20 11:18:00,
2013-01-20 06:21:00,34.1,27.7,29.73,SSW,203,3.8,3.8,77,0.00,,,0.00,WUHU216HW,2013-01-20 11:21:00,
2013-01-20 06:23:00,34.1,27.7,29.73,SSW,203,3.1,3.8,77,0.00,,,0.00,WUHU216HW,2013-01-20 11:23:00,
2013-01-20 06:27:00,34.1,27.7,29.72,West,270,1.8,4.7,77,0.00,,,0.00,WUHU216HW,2013-01-20 11:27:00,
2013-01-20 06:28:00,34.1,27.7,29.72,West,270,1.8,4.7,77,0.00,,,0.00,WUHU216HW,2013-01-20 11:28:00,
2013-01-20 06:29:00,34.1,27.7,29.72,SSW,203,2.7,4.7,77,0.00,,,0.00,WUHU216HW,2013-01-20 11:29:00,
2013-01-20 06:32:00,34.3,27.9,29.72,South,180,4.0,6.9,77,0.00,,,0.00,WUHU216HW,2013-01-20 11:32:00,
2013-01-20 06:33:00,34.3,27.9,29.72,South,180,4.0,6.9,77,0.00,,,0.00,WUHU216HW,2013-01-20 11:33:00,
2013-01-20 06:34:00,34.3,28.2,29.72,SSW,203,5.8,6.9,78,0.00,,,0.00,WUHU216HW,2013-01-20 11:34:00,
2013-01-20 06:37:00,34.3,28.2,29.72,SSW,203,5.1,6.9,78,0.00,,,0.00,WUHU216HW,2013-01-20 11:37:00,
2013-01-20 06:38:00,34.3,28.2,29.72,SSW,203,5.1,6.9,78,0.00,,,0.00,WUHU216HW,2013-01-20 11:38:00,
2013-01-20 06:39:00,34.3,28.2,29.72,SW,225,3.4,6.9,78,0.00,,,0.00,WUHU216HW,2013-01-20 11:39:00,
2013-01-20 06:43:00,34.3,28.2,29.72,SSW,203,2.5,5.8,78,0.00,,,0.00,WUHU216HW,2013-01-20 11:43:00,
2013-01-20 06:44:00,34.3,27.9,29.72,South,180,1.8,5.1,77,0.00,,,0.00,WUHU216HW,2013-01-20 11:44:00,
2013-01-20 06:48:00,34.3,27.9,29.72,South,180,3.6,6.5,77,0.00,,,0.00,WUHU216HW,2013-01-20 11:48:00,
2013-01-20 06:49:00,34.3,27.9,29.72,SSE,158,3.6,6.5,77,0.00,,,0.00,WUHU216HW,2013-01-20 11:49:00,
2013-01-20 06:53:00,34.1,28.0,29.72,WSW,248,2.2,6.5,78,0.00,,,0.00,WUHU216HW,2013-01-20 11:53:00,
2013-01-20 06:54:00,34.1,27.7,29.72,SSW,203,3.4,6.5,77,0.00,,,0.00,WUHU216HW,2013-01-20 11:54:00,
2013-01-20 06:58:00,33.9,27.8,29.72,SSE,158,2.5,4.7,78,0.00,,,0.00,WUHU216HW,2013-01-20 11:58:00,
2013-01-20 06:59:00,33.9,27.8,29.72,South,180,1.1,4.7,78,0.00,,,0.00,WUHU216HW,2013-01-20 11:59:00,
2013-01-20 07:00:00,33.9,27.5,29.72,South,180,3.4,4.7,77,0.00,,,0.00,WUHU216HW,2013-01-20 12:00:00,
2013-01-20 07:03:00,33.9,27.8,29.72,WSW,248,4.0,4.3,78,0.00,,,0.00,WUHU216HW,2013-01-20 12:03:00,
2013-01-20 07:04:00,33.9,27.8,29.72,WSW,248,4.0,4.3,78,0.00,,,0.00,WUHU216HW,2013-01-20 12:04:00,
2013-01-20 07:05:00,33.9,27.8,29.72,SSW,203,2.7,4.3,78,0.00,,,0.00,WUHU216HW,2013-01-20 12:05:00,
2013-01-20 07:09:00,33.9,27.8,29.72,South,180,4.7,4.7,78,0.00,,,0.00,WUHU216HW,2013-01-20 12:09:00,
2013-01-20 07:10:00,33.9,27.8,29.72,South,180,2.5,4.7,78,0.00,,,0.00,WUHU216HW,2013-01-20 12:10:00,
2013-01-20 07:14:00,33.9,27.8,29.71,South,180,4.3,4.7,78,0.00,,,0.00,WUHU216HW,2013-01-20 12:14:00,
2013-01-20 07:15:00,33.9,27.8,29.72,WSW,248,1.3,4.7,78,0.00,,,0.00,WUHU216HW,2013-01-20 12:15:00,
2013-01-20 07:19:00,33.9,27.8,29.72,SW,225,1.6,6.3,78,0.00,,,0.00,WUHU216HW,2013-01-20 12:19:00,
2013-01-20 07:20:00,33.9,27.8,29.72,South,180,1.8,6.3,78,0.00,,,0.00,WUHU216HW,2013-01-20 12:20:00,
2013-01-20 07:24:00,33.9,27.8,29.72,South,180,1.1,6.3,78,0.00,,,0.00,WUHU216HW,2013-01-20 12:24:00,
2013-01-20 07:25:00,33.9,27.8,29.71,SSW,203,1.8,6.3,78,0.00,,,0.00,WUHU216HW,2013-01-20 12:25:00,
2013-01-20 07:29:00,33.7,27.6,29.72,South,180,3.6,4.0,78,0.00,,,0.00,WUHU216HW,2013-01-20 12:29:00,
2013-01-20 07:30:00,33.7,27.3,29.72,SSW,203,1.8,4.0,77,0.00,,,0.00,WUHU216HW,2013-01-20 12:30:00,
2013-01-20 07:34:00,33.7,27.9,29.72,SW,225,2.5,6.3,79,0.00,,,0.00,WUHU216HW,2013-01-20 12:34:00,
2013-01-20 07:35:00,33.7,27.6,29.72,SW,225,1.1,6.3,78,0.00,,,0.00,WUHU216HW,2013-01-20 12:35:00,
2013-01-20 07:40:00,33.9,27.8,29.72,SE,135,2.9,6.3,78,0.00,,,0.00,WUHU216HW,2013-01-20 12:40:00,
2013-01-20 07:45:00,33.9,27.8,29.71,WSW,248,2.0,3.4,78,0.00,,,0.00,WUHU216HW,2013-01-20 12:45:00,
2013-01-20 07:46:00,34.1,28.0,29.71,SSW,203,4.0,4.0,78,0.00,,,0.00,WUHU216HW,2013-01-20 12:46:00,
2013-01-20 07:50:00,33.9,27.8,29.71,SSW,203,1.1,4.0,78,0.00,,,0.00,WUHU216HW,2013-01-20 12:50:00,
2013-01-20 07:51:00,33.9,27.8,29.72,SSW,203,2.0,4.0,78,0.00,,,0.00,WUHU216HW,2013-01-20 12:51:00,
2013-01-20 07:55:00,33.9,27.8,29.71,South,180,1.8,2.5,78,0.00,,,0.00,WUHU216HW,2013-01-20 12:55:00,
2013-01-20 07:56:00,33.7,27.6,29.71,SSW,203,5.4,5.4,78,0.00,,,0.00,WUHU216HW,2013-01-20 12:56:00,
2013-01-20 07:57:00,33.7,27.6,29.71,SSE,158,2.5,5.4,78,0.00,,,0.00,WUHU216HW,2013-01-20 12:57:00,
2013-01-20 08:00:00,33.9,28.1,29.71,SSW,203,3.6,5.4,79,0.00,,,0.00,WUHU216HW,2013-01-20 13:00:00,
2013-01-20 08:01:00,33.9,28.1,29.71,South,180,5.4,5.4,79,0.00,,,0.00,WUHU216HW,2013-01-20 13:01:00,
2013-01-20 08:02:00,33.9,27.8,29.71,SSW,203,4.0,5.4,78,0.00,,,0.00,WUHU216HW,2013-01-20 13:02:00,
2013-01-20 08:05:00,34.5,28.4,29.71,SSW,203,2.9,5.4,78,0.00,,,0.00,WUHU216HW,2013-01-20 13:05:00,
2013-01-20 08:06:00,34.5,28.4,29.71,SSW,203,2.9,5.4,78,0.00,,,0.00,WUHU216HW,2013-01-20 13:06:00,
2013-01-20 08:07:00,34.5,28.7,29.71,SSE,158,2.7,5.4,79,0.00,,,0.00,WUHU216HW,2013-01-20 13:07:00,
2013-01-20 08:10:00,35.0,28.8,29.72,SSW,203,2.0,5.4,78,0.00,,,0.00,WUHU216HW,2013-01-20 13:10:00,
2013-01-20 08:11:00,35.2,29.0,29.72,SE,135,3.4,4.0,78,0.00,,,0.00,WUHU216HW,2013-01-20 13:11:00,
2013-01-20 08:12:00,35.2,29.0,29.72,SE,135,3.4,4.0,78,0.00,,,0.00,WUHU216HW,2013-01-20 13:12:00,
2013-01-20 08:15:00,35.7,29.2,29.72,SW,225,2.2,3.8,77,0.00,,,0.00,WUHU216HW,2013-01-20 13:15:00,
2013-01-20 08:16:00,35.7,29.2,29.72,SSW,203,3.6,3.8,77,0.00,,,0.00,WUHU216HW,2013-01-20 13:16:00,
2013-01-20 08:17:00,35.7,29.2,29.72,SSW,203,3.6,3.8,77,0.00,,,0.00,WUHU216HW,2013-01-20 13:17:00,
2013-01-20 08:21:00,35.8,29.1,29.72,SW,225,5.1,5.1,76,0.00,,,0.00,WUHU216HW,2013-01-20 13:21:00,
2013-01-20 08:22:00,35.8,29.4,29.72,SE,135,5.4,5.4,77,0.00,,,0.00,WUHU216HW,2013-01-20 13:22:00,
2013-01-20 08:26:00,36.0,29.5,29.72,WNW,293,2.2,5.4,77,0.00,,,0.00,WUHU216HW,2013-01-20 13:26:00,
2013-01-20 08:27:00,36.0,29.5,29.72,SW,225,1.1,5.4,77,0.00,,,0.00,WUHU216HW,2013-01-20 13:27:00,
2013-01-20 08:28:00,36.0,29.5,29.72,SW,225,1.1,5.4,77,0.00,,,0.00,WUHU216HW,2013-01-20 13:28:00,
2013-01-20 08:31:00,36.0,29.2,29.72,SSW,203,2.5,5.4,76,0.00,,,0.00,WUHU216HW,2013-01-20 13:31:00,
2013-01-20 08:33:00,36.0,29.2,29.73,SSE,158,1.8,5.1,76,0.00,,,0.00,WUHU216HW,2013-01-20 13:33:00,
2013-01-20 08:36:00,36.5,29.4,29.72,SSE,158,4.9,5.6,75,0.00,,,0.00,WUHU216HW,2013-01-20 13:36:00,
2013-01-20 08:38:00,36.5,29.0,29.72,SW,225,3.4,5.6,74,0.00,,,0.00,WUHU216HW,2013-01-20 13:38:00,
2013-01-20 08:41:00,36.9,29.4,29.73,SSE,158,2.5,5.6,74,0.00,,,0.00,WUHU216HW,2013-01-20 13:41:00,
2013-01-20 08:43:00,37.2,29.7,29.72,SSW,203,7.6,7.6,74,0.00,,,0.00,WUHU216HW,2013-01-20 13:43:00,
2013-01-20 08:46:00,38.0,30.5,29.72,SSW,203,4.7,7.6,74,0.00,,,0.00,WUHU216HW,2013-01-20 13:46:00,
2013-01-20 08:48:00,38.4,30.9,29.72,SE,135,2.5,7.6,74,0.00,,,0.00,WUHU216HW,2013-01-20 13:48:00,
2013-01-20 08:52:00,38.8,30.6,29.73,SSE,158,2.7,7.6,72,0.00,,,0.00,WUHU216HW,2013-01-20 13:52:00,
2013-01-20 08:53:00,38.8,30.3,29.73,SSW,203,4.9,4.9,71,0.00,,,0.00,WUHU216HW,2013-01-20 13:53:00,
2013-01-20 08:57:00,38.9,30.4,29.73,South,180,4.3,4.9,71,0.00,,,0.00,WUHU216HW,2013-01-20 13:57:00,
2013-01-20 08:58:00,39.5,30.9,29.73,South,180,4.7,4.9,71,0.00,,,0.00,WUHU216HW,2013-01-20 13:58:00,
2013-01-20 09:02:00,40.4,31.5,29.72,SSW,203,4.3,4.9,70,0.00,,,0.00,WUHU216HW,2013-01-20 14:02:00,
2013-01-20 09:03:00,40.6,30.9,29.72,SSE,158,3.1,4.7,68,0.00,,,0.00,WUHU216HW,2013-01-20 14:03:00,
2013-01-20 09:07:00,41.1,31.0,29.73,South,180,4.0,6.3,67,0.00,,,0.00,WUHU216HW,2013-01-20 14:07:00,
2013-01-20 09:08:00,41.3,31.6,29.73,SSE,158,3.1,6.3,68,0.00,,,0.00,WUHU216HW,2013-01-20 14:08:00,
2013-01-20 09:09:00,41.5,32.1,29.72,WSW,248,4.7,6.3,69,0.00,,,0.00,WUHU216HW,2013-01-20 14:09:00,
2013-01-20 09:12:00,41.5,31.8,29.72,SSE,158,7.4,7.4,68,0.00,,,0.00,WUHU216HW,2013-01-20 14:12:00,
2013-01-20 09:13:00,41.4,31.8,29.72,SSW,203,9.8,9.8,68,0.00,,,0.00,WUHU216HW,2013-01-20 14:13:00,
2013-01-20 09:14:00,41.4,31.4,29.72,SE,135,5.4,9.8,67,0.00,,,0.00,WUHU216HW,2013-01-20 14:14:00,
2013-01-20 09:17:00,41.4,31.4,29.72,South,180,6.3,9.8,67,0.00,,,0.00,WUHU216HW,2013-01-20 14:17:00,
2013-01-20 09:18:00,41.4,31.4,29.72,South,180,6.3,9.8,67,0.00,,,0.00,WUHU216HW,2013-01-20 14:18:00,
2013-01-20 09:19:00,41.2,30.8,29.72,SSW,203,3.1,9.8,66,0.00,,,0.00,WUHU216HW,2013-01-20 14:19:00,
2013-01-20 09:22:00,41.5,31.1,29.72,South,180,3.6,9.8,66,0.00,,,0.00,WUHU216HW,2013-01-20 14:22:00,
2013-01-20 09:23:00,41.5,31.1,29.72,South,180,3.6,9.8,66,0.00,,,0.00,WUHU216HW,2013-01-20 14:23:00,
2013-01-20 09:24:00,41.5,31.1,29.72,SSW,203,6.3,6.3,66,0.00,,,0.00,WUHU216HW,2013-01-20 14:24:00,
2013-01-20 09:27:00,41.5,31.1,29.72,SSW,203,2.0,6.3,66,0.00,,,0.00,WUHU216HW,2013-01-20 14:27:00,
2013-01-20 09:28:00,41.5,31.1,29.72,SSW,203,2.0,6.3,66,0.00,,,0.00,WUHU216HW,2013-01-20 14:28:00,
2013-01-20 09:29:00,41.7,30.9,29.72,SW,225,3.4,6.9,65,0.00,,,0.00,WUHU216HW,2013-01-20 14:29:00,
2013-01-20 09:32:00,41.9,31.1,29.72,South,180,2.7,7.2,65,0.00,,,0.00,WUHU216HW,2013-01-20 14:32:00,
2013-01-20 09:33:00,42.1,31.6,29.72,South,180,7.8,7.8,66,0.00,,,0.00,WUHU216HW,2013-01-20 14:33:00,
2013-01-20 09:34:00,42.1,31.6,29.72,SSE,158,4.3,7.8,66,0.00,,,0.00,WUHU216HW,2013-01-20 14:34:00,
2013-01-20 09:38:00,42.4,31.9,29.72,SSW,203,1.8,7.8,66,0.00,,,0.00,WUHU216HW,2013-01-20 14:38:00,
2013-01-20 09:39:00,43.0,32.1,29.72,North,0,4.9,7.8,65,0.00,,,0.00,WUHU216HW,2013-01-20 14:39:00,
2013-01-20 09:43:00,43.2,32.0,29.72,South,180,2.2,7.8,64,0.00,,,0.00,WUHU216HW,2013-01-20 14:43:00,
2013-01-20 09:44:00,43.2,31.2,29.72,South,180,6.9,6.9,62,0.00,,,0.00,WUHU216HW,2013-01-20 14:44:00,
2013-01-20 09:48:00,42.9,31.3,29.72,SSW,203,1.6,6.9,63,0.00,,,0.00,WUHU216HW,2013-01-20 14:48:00,
2013-01-20 09:49:00,42.9,30.9,29.73,South,180,4.3,6.9,62,0.00,,,0.00,WUHU216HW,2013-01-20 14:49:00,
2013-01-20 09:53:00,43.6,31.9,29.73,South,180,0.9,8.7,63,0.00,,,0.00,WUHU216HW,2013-01-20 14:53:00,
2013-01-20 09:54:00,44.0,32.3,29.73,South,180,2.2,8.7,63,0.00,,,0.00,WUHU216HW,2013-01-20 14:54:00,
2013-01-20 09:55:00,44.3,32.6,29.73,South,180,4.0,8.7,63,0.00,,,0.00,WUHU216HW,2013-01-20 14:55:00,
2013-01-20 09:58:00,45.6,32.6,29.73,SE,135,2.7,8.7,60,0.00,,,0.00,WUHU216HW,2013-01-20 14:58:00,
2013-01-20 09:59:00,45.9,32.4,29.73,South,180,5.8,8.7,59,0.00,,,0.00,WUHU216HW,2013-01-20 14:59:00,
2013-01-20 10:00:00,46.5,33.4,29.73,South,180,6.3,8.7,60,0.00,,,0.00,WUHU216HW,2013-01-20 15:00:00,
2013-01-20 10:03:00,47.2,34.1,29.73,WNW,293,1.6,6.3,60,0.00,,,0.00,WUHU216HW,2013-01-20 15:03:00,
2013-01-20 10:04:00,47.2,34.1,29.73,WNW,293,1.6,6.3,60,0.00,,,0.00,WUHU216HW,2013-01-20 15:04:00,
2013-01-20 10:05:00,47.7,32.8,29.73,South,180,3.8,6.3,56,0.00,,,0.00,WUHU216HW,2013-01-20 15:05:00,
2013-01-20 10:08:00,48.6,34.5,29.72,ENE,68,0.9,6.3,58,0.00,,,0.00,WUHU216HW,2013-01-20 15:08:00,
2013-01-20 10:09:00,48.6,34.5,29.72,ENE,68,0.9,6.3,58,0.00,,,0.00,WUHU216HW,2013-01-20 15:09:00,
2013-01-20 10:10:00,49.0,33.5,29.72,WSW,248,4.3,4.7,55,0.00,,,0.00,WUHU216HW,2013-01-20 15:10:00,
2013-01-20 10:13:00,49.4,34.0,29.73,SSE,158,2.5,4.3,55,0.00,,,0.00,WUHU216HW,2013-01-20 15:13:00,
2013-01-20 10:14:00,49.6,31.7,29.72,SSE,158,4.3,4.3,50,0.00,,,0.00,WUHU216HW,2013-01-20 15:14:00,
2013-01-20 10:15:00,49.6,32.7,29.72,SW,225,2.5,4.3,52,0.00,,,0.00,WUHU216HW,2013-01-20 15:15:00,
2013-01-20 10:19:00,49.3,31.9,29.72,SW,225,3.4,4.3,51,0.00,,,0.00,WUHU216HW,2013-01-20 15:19:00,
2013-01-20 10:20:00,49.3,31.9,29.72,West,270,4.3,4.3,51,0.00,,,0.00,WUHU216HW,2013-01-20 15:20:00,
2013-01-20 10:24:00,48.7,30.4,29.72,SW,225,3.4,8.5,49,0.00,,,0.00,WUHU216HW,2013-01-20 15:24:00,
2013-01-20 10:25:00,48.7,30.4,29.72,SW,225,3.4,8.5,49,0.00,,,0.00,WUHU216HW,2013-01-20 15:25:00,
2013-01-20 10:29:00,48.4,31.1,29.71,South,180,2.5,8.9,51,0.00,,,0.00,WUHU216HW,2013-01-20 15:29:00,
2013-01-20 10:30:00,48.4,31.1,29.71,South,180,2.5,8.9,51,0.00,,,0.00,WUHU216HW,2013-01-20 15:30:00,
2013-01-20 10:34:00,48.4,30.6,29.71,SSW,203,6.3,8.9,50,0.00,,,0.00,WUHU216HW,2013-01-20 15:34:00,
2013-01-20 10:35:00,48.4,30.6,29.71,SSW,203,6.3,8.9,50,0.00,,,0.00,WUHU216HW,2013-01-20 15:35:00,
2013-01-20 10:36:00,48.5,31.2,29.71,WSW,248,6.3,6.3,51,0.00,,,0.00,WUHU216HW,2013-01-20 15:36:00,
2013-01-20 10:39:00,48.5,30.1,29.71,WSW,248,6.9,8.7,49,0.00,,,0.00,WUHU216HW,2013-01-20 15:39:00,
2013-01-20 10:40:00,48.5,30.1,29.71,WSW,248,6.9,8.7,49,0.00,,,0.00,WUHU216HW,2013-01-20 15:40:00,
2013-01-20 10:41:00,48.4,29.5,29.71,West,270,4.5,8.7,48,0.00,,,0.00,WUHU216HW,2013-01-20 15:41:00,
2013-01-20 10:44:00,48.2,30.3,29.71,South,180,4.5,8.7,50,0.00,,,0.00,WUHU216HW,2013-01-20 15:44:00,
2013-01-20 10:45:00,48.2,30.3,29.71,South,180,4.5,8.7,50,0.00,,,0.00,WUHU216HW,2013-01-20 15:45:00,
2013-01-20 10:46:00,48.1,30.8,29.71,SSW,203,2.9,8.7,51,0.00,,,0.00,WUHU216HW,2013-01-20 15:46:00,
2013-01-20 10:50:00,48.4,31.1,29.71,SSW,203,5.4,7.4,51,0.00,,,0.00,WUHU216HW,2013-01-20 15:50:00,
2013-01-20 10:51:00,48.4,31.1,29.71,SSW,203,4.3,7.4,51,0.00,,,0.00,WUHU216HW,2013-01-20 15:51:00,
2013-01-20 10:55:00,48.6,30.3,29.71,South,180,6.0,7.4,49,0.00,,,0.00,WUHU216HW,2013-01-20 15:55:00,
2013-01-20 10:57:00,48.8,31.0,29.70,NNW,338,2.5,7.4,50,0.00,,,0.00,WUHU216HW,2013-01-20 15:57:00,
2013-01-20 11:00:00,48.8,31.0,29.70,West,270,2.7,8.1,50,0.00,,,0.00,WUHU216HW,2013-01-20 16:00:00,
2013-01-20 11:02:00,48.8,30.4,29.70,SSE,158,5.4,8.1,49,0.00,,,0.00,WUHU216HW,2013-01-20 16:02:00,
2013-01-20 11:05:00,48.8,30.4,29.70,South,180,4.7,8.1,49,0.00,,,0.00,WUHU216HW,2013-01-20 16:05:00,
2013-01-20 11:06:00,48.8,30.4,29.70,South,180,4.7,8.1,49,0.00,,,0.00,WUHU216HW,2013-01-20 16:06:00,
2013-01-20 11:07:00,48.8,30.4,29.70,SW,225,5.1,8.1,49,0.00,,,0.00,WUHU216HW,2013-01-20 16:07:00,
2013-01-20 11:10:00,48.6,29.7,29.70,WSW,248,3.8,8.1,48,0.00,,,0.00,WUHU216HW,2013-01-20 16:10:00,
2013-01-20 11:11:00,48.6,29.7,29.70,WSW,248,3.8,8.1,48,0.00,,,0.00,WUHU216HW,2013-01-20 16:11:00,
2013-01-20 11:12:00,48.6,30.2,29.70,SE,135,3.8,8.1,49,0.00,,,0.00,WUHU216HW,2013-01-20 16:12:00,
2013-01-20 11:15:00,48.6,30.2,29.70,NW,315,3.4,7.8,49,0.00,,,0.00,WUHU216HW,2013-01-20 16:15:00,
2013-01-20 11:16:00,48.6,30.2,29.70,NW,315,3.4,7.8,49,0.00,,,0.00,WUHU216HW,2013-01-20 16:16:00,
2013-01-20 11:17:00,48.8,29.9,29.69,SSW,203,8.3,8.3,48,0.00,,,0.00,WUHU216HW,2013-01-20 16:17:00,
2013-01-20 11:20:00,48.6,29.2,29.69,SW,225,4.9,23.3,47,0.00,,,0.00,WUHU216HW,2013-01-20 16:20:00,
2013-01-20 11:21:00,48.6,29.2,29.69,SW,225,4.9,23.3,47,0.00,,,0.00,WUHU216HW,2013-01-20 16:21:00,
2013-01-20 11:22:00,48.6,29.7,29.69,WSW,248,2.5,23.3,48,0.00,,,0.00,WUHU216HW,2013-01-20 16:22:00,
2013-01-20 11:26:00,48.7,29.9,29.69,SW,225,4.3,23.3,48,0.00,,,0.00,WUHU216HW,2013-01-20 16:26:00,
2013-01-20 11:27:00,48.7,29.3,29.69,WSW,248,5.1,23.3,47,0.00,,,0.00,WUHU216HW,2013-01-20 16:27:00,
2013-01-20 11:31:00,48.7,29.3,29.69,SW,225,4.7,14.5,47,0.00,,,0.00,WUHU216HW,2013-01-20 16:31:00,
2013-01-20 11:32:00,48.7,29.8,29.69,WSW,248,10.5,14.5,48,0.00,,,0.00,WUHU216HW,2013-01-20 16:32:00,
2013-01-20 11:36:00,48.9,30.0,29.69,NNW,338,4.3,14.5,48,0.00,,,0.00,WUHU216HW,2013-01-20 16:36:00,
2013-01-20 11:37:00,48.7,29.8,29.69,SSW,203,15.0,15.0,48,0.00,,,0.00,WUHU216HW,2013-01-20 16:37:00,
2013-01-20 11:41:00,48.7,29.3,29.69,WNW,293,10.7,15.0,47,0.00,,,0.00,WUHU216HW,2013-01-20 16:41:00,
2013-01-20 11:42:00,48.7,28.7,29.69,WNW,293,5.1,15.0,46,0.00,,,0.00,WUHU216HW,2013-01-20 16:42:00,
2013-01-20 11:46:00,48.9,29.5,29.69,West,270,6.3,12.8,47,0.00,,,0.00,WUHU216HW,2013-01-20 16:46:00,
2013-01-20 11:47:00,48.9,28.9,29.69,South,180,8.3,12.8,46,0.00,,,0.00,WUHU216HW,2013-01-20 16:47:00,
2013-01-20 11:51:00,48.9,28.4,29.69,WSW,248,12.8,16.3,45,0.00,,,0.00,WUHU216HW,2013-01-20 16:51:00,
2013-01-20 11:52:00,48.9,28.4,29.68,West,270,4.7,16.3,45,0.00,,,0.00,WUHU216HW,2013-01-20 16:52:00,
2013-01-20 11:53:00,48.9,28.9,29.68,SW,225,9.8,16.3,46,0.00,,,0.00,WUHU216HW,2013-01-20 16:53:00,
2013-01-20 11:56:00,48.9,28.3,29.68,WNW,293,6.3,16.3,45,0.00,,,0.00,WUHU216HW,2013-01-20 16:56:00,
2013-01-20 11:57:00,48.9,28.3,29.68,WNW,293,6.3,16.3,45,0.00,,,0.00,WUHU216HW,2013-01-20 16:57:00,
2013-01-20 11:58:00,49.1,29.1,29.68,WSW,248,6.3,15.7,46,0.00,,,0.00,WUHU216HW,2013-01-20 16:58:00,
2013-01-20 12:02:00,49.1,29.1,29.67,WSW,248,17.7,17.7,46,0.00,,,0.00,WUHU216HW,2013-01-20 17:02:00,
2013-01-20 12:03:00,49.1,29.1,29.67,WSW,248,6.3,17.7,46,0.00,,,0.00,WUHU216HW,2013-01-20 17:03:00,
2013-01-20 12:07:00,49.1,28.5,29.67,West,270,9.2,17.7,45,0.00,,,0.00,WUHU216HW,2013-01-20 17:07:00,
2013-01-20 12:08:00,49.1,28.5,29.68,West,270,11.4,17.7,45,0.00,,,0.00,WUHU216HW,2013-01-20 17:08:00,
2013-01-20 12:12:00,49.1,29.1,29.67,SSE,158,5.4,11.4,46,0.00,,,0.00,WUHU216HW,2013-01-20 17:12:00,
2013-01-20 12:13:00,49.1,28.6,29.68,WNW,293,16.3,16.3,45,0.00,,,0.00,WUHU216HW,2013-01-20 17:13:00,
2013-01-20 12:17:00,49.1,29.1,29.67,WSW,248,6.3,16.3,46,0.00,,,0.00,WUHU216HW,2013-01-20 17:17:00,
2013-01-20 12:18:00,49.3,28.8,29.67,West,270,10.1,16.3,45,0.00,,,0.00,WUHU216HW,2013-01-20 17:18:00,
2013-01-20 12:22:00,49.3,28.8,29.67,West,270,10.5,16.3,45,0.00,,,0.00,WUHU216HW,2013-01-20 17:22:00,
2013-01-20 12:23:00,49.3,28.8,29.67,West,270,10.5,16.3,45,0.00,,,0.00,WUHU216HW,2013-01-20 17:23:00,
2013-01-20 12:27:00,49.5,28.9,29.67,West,270,10.5,11.4,45,0.00,,,0.00,WUHU216HW,2013-01-20 17:27:00,
2013-01-20 12:28:00,49.5,28.9,29.67,West,270,10.5,11.4,45,0.00,,,0.00,WUHU216HW,2013-01-20 17:28:00,
2013-01-20 12:29:00,49.5,28.9,29.67,NW,315,11.4,11.4,45,0.00,,,0.00,WUHU216HW,2013-01-20 17:29:00,
2013-01-20 12:32:00,49.3,29.3,29.67,SW,225,2.9,13.2,46,0.00,,,0.00,WUHU216HW,2013-01-20 17:32:00,
2013-01-20 12:33:00,49.3,29.3,29.67,SW,225,2.9,13.2,46,0.00,,,0.00,WUHU216HW,2013-01-20 17:33:00,
2013-01-20 12:34:00,49.3,28.7,29.67,WNW,293,5.4,13.2,45,0.00,,,0.00,WUHU216HW,2013-01-20 17:34:00,
2013-01-20 12:38:00,49.0,28.5,29.67,West,270,12.8,13.2,45,0.00,,,0.00,WUHU216HW,2013-01-20 17:38:00,
2013-01-20 12:39:00,49.0,27.9,29.67,SW,225,4.7,13.2,44,0.00,,,0.00,WUHU216HW,2013-01-20 17:39:00,
2013-01-20 12:43:00,48.8,28.3,29.68,WSW,248,4.7,12.8,45,0.00,,,0.00,WUHU216HW,2013-01-20 17:43:00,
2013-01-20 12:44:00,48.6,27.5,29.68,WSW,248,13.4,13.4,44,0.00,,,0.00,WUHU216HW,2013-01-20 17:44:00,
2013-01-20 12:48:00,48.4,27.9,29.67,SSW,203,6.3,13.4,45,0.00,,,0.00,WUHU216HW,2013-01-20 17:48:00,
2013-01-20 12:49:00,48.2,27.7,29.68,WSW,248,2.7,13.4,45,0.00,,,0.00,WUHU216HW,2013-01-20 17:49:00,
2013-01-20 12:53:00,48.1,27.6,29.67,SE,135,4.7,13.4,45,0.00,,,0.00,WUHU216HW,2013-01-20 17:53:00,
2013-01-20 12:54:00,47.9,27.4,29.68,SW,225,3.4,12.5,45,0.00,,,0.00,WUHU216HW,2013-01-20 17:54:00,
2013-01-20 12:58:00,47.9,27.4,29.68,SW,225,6.3,12.5,45,0.00,,,0.00,WUHU216HW,2013-01-20 17:58:00,
2013-01-20 13:00:00,47.7,27.2,29.67,West,270,9.8,12.5,45,0.00,,,0.00,WUHU216HW,2013-01-20 18:00:00,
2013-01-20 13:03:00,47.5,27.1,29.67,SW,225,5.1,11.6,45,0.00,,,0.00,WUHU216HW,2013-01-20 18:03:00,
2013-01-20 13:05:00,47.5,27.6,29.68,SW,225,6.5,11.6,46,0.00,,,0.00,WUHU216HW,2013-01-20 18:05:00,
2013-01-20 13:08:00,47.5,27.6,29.68,SW,225,4.7,9.8,46,0.00,,,0.00,WUHU216HW,2013-01-20 18:08:00,
2013-01-20 13:09:00,47.5,27.6,29.68,SW,225,4.7,9.8,46,0.00,,,0.00,WUHU216HW,2013-01-20 18:09:00,
2013-01-20 13:10:00,47.2,27.4,29.68,SSW,203,2.2,8.5,46,0.00,,,0.00,WUHU216HW,2013-01-20 18:10:00,
2013-01-20 13:13:00,47.1,26.8,29.68,South,180,9.2,9.2,45,0.00,,,0.00,WUHU216HW,2013-01-20 18:13:00,
2013-01-20 13:14:00,47.1,26.8,29.68,South,180,9.2,9.2,45,0.00,,,0.00,WUHU216HW,2013-01-20 18:14:00,
2013-01-20 13:15:00,47.2,27.4,29.68,SW,225,5.1,9.2,46,0.00,,,0.00,WUHU216HW,2013-01-20 18:15:00,
2013-01-20 13:18:00,47.8,28.0,29.68,West,270,3.1,9.2,46,0.00,,,0.00,WUHU216HW,2013-01-20 18:18:00,
2013-01-20 13:19:00,47.8,28.0,29.68,West,270,3.1,9.2,46,0.00,,,0.00,WUHU216HW,2013-01-20 18:19:00,
2013-01-20 13:20:00,48.3,28.4,29.68,WNW,293,3.1,9.2,46,0.00,,,0.00,WUHU216HW,2013-01-20 18:20:00,
2013-01-20 13:23:00,48.9,28.4,29.68,SSW,203,7.4,7.4,45,0.00,,,0.00,WUHU216HW,2013-01-20 18:23:00,
2013-01-20 13:24:00,48.9,28.4,29.68,SSW,203,7.4,7.4,45,0.00,,,0.00,WUHU216HW,2013-01-20 18:24:00,
2013-01-20 13:25:00,49.0,28.5,29.67,SW,225,3.8,7.4,45,0.00,,,0.00,WUHU216HW,2013-01-20 18:25:00,
2013-01-20 13:28:00,49.4,28.9,29.68,WNW,293,10.1,10.1,45,0.00,,,0.00,WUHU216HW,2013-01-20 18:28:00,
2013-01-20 13:29:00,49.4,27.7,29.68,WSW,248,5.6,10.1,43,0.00,,,0.00,WUHU216HW,2013-01-20 18:29:00,
2013-01-20 13:30:00,49.6,27.9,29.68,WSW,248,10.3,10.3,43,0.00,,,0.00,WUHU216HW,2013-01-20 18:30:00,
2013-01-20 13:33:00,49.6,27.3,29.68,WSW,248,9.4,10.3,42,0.00,,,0.00,WUHU216HW,2013-01-20 18:33:00,
2013-01-20 13:34:00,49.6,27.3,29.68,WSW,248,9.4,10.3,42,0.00,,,0.00,WUHU216HW,2013-01-20 18:34:00,
2013-01-20 13:35:00,49.6,27.3,29.68,SW,225,4.7,10.3,42,0.00,,,0.00,WUHU216HW,2013-01-20 18:35:00,
2013-01-20 13:38:00,49.9,28.2,29.68,West,270,6.3,10.5,43,0.00,,,0.00,WUHU216HW,2013-01-20 18:38:00,
2013-01-20 13:39:00,49.9,28.2,29.68,West,270,6.3,10.5,43,0.00,,,0.00,WUHU216HW,2013-01-20 18:39:00,
2013-01-20 13:40:00,49.9,27.6,29.68,SW,225,4.7,10.5,42,0.00,,,0.00,WUHU216HW,2013-01-20 18:40:00,
2013-01-20 13:43:00,49.9,27.6,29.68,SSW,203,6.3,10.5,42,0.00,,,0.00,WUHU216HW,2013-01-20 18:43:00,
2013-01-20 13:44:00,49.9,28.2,29.68,West,270,6.9,10.5,43,0.00,,,0.00,WUHU216HW,2013-01-20 18:44:00,
2013-01-20 13:45:00,49.9,28.2,29.68,West,270,6.9,10.5,43,0.00,,,0.00,WUHU216HW,2013-01-20 18:45:00,
2013-01-20 13:48:00,50.1,27.1,29.69,WSW,248,8.3,9.6,41,0.00,,,0.00,WUHU216HW,2013-01-20 18:48:00,
2013-01-20 13:49:00,50.1,27.1,29.69,WSW,248,8.3,9.6,41,0.00,,,0.00,WUHU216HW,2013-01-20 18:49:00,
2013-01-20 13:50:00,50.1,28.3,29.68,SW,225,9.8,9.8,43,0.00,,,0.00,WUHU216HW,2013-01-20 18:50:00,
2013-01-20 13:51:00,50.1,28.3,29.68,SW,225,9.8,9.8,43,0.00,,,0.00,WUHU216HW,2013-01-20 18:51:00,
2013-01-20 13:54:00,50.3,27.9,29.68,SW,225,9.8,9.8,42,0.00,,,0.00,WUHU216HW,2013-01-20 18:54:00,
2013-01-20 13:55:00,50.3,27.3,29.69,SSW,203,9.8,9.8,41,0.00,,,0.00,WUHU216HW,2013-01-20 18:55:00,
2013-01-20 13:56:00,50.3,27.3,29.69,WSW,248,8.1,9.8,41,0.00,,,0.00,WUHU216HW,2013-01-20 18:56:00,
2013-01-20 13:59:00,50.3,26.7,29.69,West,270,8.3,9.8,40,0.00,,,0.00,WUHU216HW,2013-01-20 18:59:00,
2013-01-20 14:00:00,50.3,26.7,29.69,South,180,2.9,9.8,40,0.00,,,0.00,WUHU216HW,2013-01-20 19:00:00,
2013-01-20 14:01:00,50.3,26.7,29.69,NNW,338,4.0,9.8,40,0.00,,,0.00,WUHU216HW,2013-01-20 19:01:00,
2013-01-20 14:04:00,50.5,26.3,29.69,WNW,293,5.4,10.3,39,0.00,,,0.00,WUHU216HW,2013-01-20 19:04:00,
2013-01-20 14:05:00,50.5,27.5,29.69,SSE,158,1.8,10.3,41,0.00,,,0.00,WUHU216HW,2013-01-20 19:05:00,
2013-01-20 14:06:00,50.5,27.5,29.69,SSE,158,1.8,10.3,41,0.00,,,0.00,WUHU216HW,2013-01-20 19:06:00,
2013-01-20 14:09:00,50.8,25.9,29.69,WSW,248,5.6,13.4,38,0.00,,,0.00,WUHU216HW,2013-01-20 19:09:00,
2013-01-20 14:10:00,50.8,24.6,29.69,SSW,203,3.8,13.4,36,0.00,,,0.00,WUHU216HW,2013-01-20 19:10:00,
2013-01-20 14:11:00,50.8,24.6,29.69,SSW,203,3.8,13.4,36,0.00,,,0.00,WUHU216HW,2013-01-20 19:11:00,
2013-01-20 14:14:00,50.7,22.4,29.69,WSW,248,11.2,13.4,33,0.00,,,0.00,WUHU216HW,2013-01-20 19:14:00,
2013-01-20 14:15:00,50.7,22.4,29.70,North,0,6.7,13.4,33,0.00,,,0.00,WUHU216HW,2013-01-20 19:15:00,
2013-01-20 14:16:00,50.7,22.4,29.70,North,0,6.7,13.4,33,0.00,,,0.00,WUHU216HW,2013-01-20 19:16:00,
2013-01-20 14:19:00,50.7,21.7,29.70,North,0,15.9,15.9,32,0.00,,,0.00,WUHU216HW,2013-01-20 19:19:00,
2013-01-20 14:20:00,50.5,20.0,29.70,NE,45,6.9,15.9,30,0.00,,,0.00,WUHU216HW,2013-01-20 19:20:00,
2013-01-20 14:21:00,50.5,20.0,29.70,NE,45,6.9,15.9,30,0.00,,,0.00,WUHU216HW,2013-01-20 19:21:00,
2013-01-20 14:22:00,50.5,20.7,29.70,West,270,10.3,15.9,31,0.00,,,0.00,WUHU216HW,2013-01-20 19:22:00,
2013-01-20 14:24:00,50.3,21.3,29.70,WNW,293,9.8,15.9,32,0.00,,,0.00,WUHU216HW,2013-01-20 19:24:00,
2013-01-20 14:25:00,50.3,20.6,29.71,WNW,293,9.2,15.9,31,0.00,,,0.00,WUHU216HW,2013-01-20 19:25:00,
2013-01-20 14:26:00,50.3,20.6,29.71,NW,315,2.9,15.9,31,0.00,,,0.00,WUHU216HW,2013-01-20 19:26:00,
2013-01-20 14:27:00,50.3,20.6,29.71,NW,315,2.9,15.9,31,0.00,,,0.00,WUHU216HW,2013-01-20 19:27:00,
2013-01-20 14:29:00,50.3,21.3,29.71,NNW,338,6.3,10.3,32,0.00,,,0.00,WUHU216HW,2013-01-20 19:29:00,
2013-01-20 14:31:00,50.3,21.3,29.71,NNW,338,6.5,10.3,32,0.00,,,0.00,WUHU216HW,2013-01-20 19:31:00,
2013-01-20 14:32:00,50.3,20.6,29.71,SSW,203,5.6,9.8,31,0.00,,,0.00,WUHU216HW,2013-01-20 19:32:00,
2013-01-20 14:34:00,50.3,19.8,29.71,NNW,338,6.3,10.5,30,0.00,,,0.00,WUHU216HW,2013-01-20 19:34:00,
2013-01-20 14:36:00,50.3,20.6,29.71,NNW,338,3.1,10.5,31,0.00,,,0.00,WUHU216HW,2013-01-20 19:36:00,
2013-01-20 14:37:00,50.3,20.6,29.71,WNW,293,6.9,10.5,31,0.00,,,0.00,WUHU216HW,2013-01-20 19:37:00,
2013-01-20 14:40:00,50.3,19.8,29.71,WNW,293,6.7,10.5,30,0.00,,,0.00,WUHU216HW,2013-01-20 19:40:00,
2013-01-20 14:41:00,50.3,20.6,29.71,North,0,4.0,10.5,31,0.00,,,0.00,WUHU216HW,2013-01-20 19:41:00,
2013-01-20 14:42:00,50.3,19.8,29.71,West,270,5.8,10.5,30,0.00,,,0.00,WUHU216HW,2013-01-20 19:42:00,
2013-01-20 14:45:00,50.7,19.4,29.71,WNW,293,5.4,12.8,29,0.00,,,0.00,WUHU216HW,2013-01-20 19:45:00,
2013-01-20 14:46:00,50.7,20.2,29.72,WSW,248,8.1,12.8,30,0.00,,,0.00,WUHU216HW,2013-01-20 19:46:00,
2013-01-20 14:47:00,50.7,20.2,29.71,West,270,5.6,12.8,30,0.00,,,0.00,WUHU216HW,2013-01-20 19:47:00,
2013-01-20 14:50:00,50.8,19.5,29.72,WNW,293,11.4,12.8,29,0.00,,,0.00,WUHU216HW,2013-01-20 19:50:00,
2013-01-20 14:51:00,50.7,18.6,29.72,West,270,4.9,12.8,28,0.00,,,0.00,WUHU216HW,2013-01-20 19:51:00,
2013-01-20 14:52:00,50.7,19.4,29.72,SW,225,4.5,12.8,29,0.00,,,0.00,WUHU216HW,2013-01-20 19:52:00,
2013-01-20 14:55:00,51.0,20.4,29.72,SSW,203,6.3,11.4,30,0.00,,,0.00,WUHU216HW,2013-01-20 19:55:00,
2013-01-20 14:56:00,51.0,20.4,29.72,SSW,203,6.3,11.4,30,0.00,,,0.00,WUHU216HW,2013-01-20 19:56:00,
2013-01-20 14:57:00,51.0,20.4,29.72,SSW,203,6.3,11.4,30,0.00,,,0.00,WUHU216HW,2013-01-20 19:57:00,
2013-01-20 15:00:00,49.8,17.8,29.73,West,270,12.1,12.1,28,0.00,,,0.00,WUHU216HW,2013-01-20 20:00:00,
2013-01-20 15:01:00,49.6,17.6,29.73,WNW,293,6.3,12.1,28,0.00,,,0.00,WUHU216HW,2013-01-20 20:01:00,
2013-01-20 15:02:00,49.6,17.6,29.73,WNW,293,6.3,12.1,28,0.00,,,0.00,WUHU216HW,2013-01-20 20:02:00,
2013-01-20 15:03:00,49.6,18.4,29.73,WSW,248,6.5,12.1,29,0.00,,,0.00,WUHU216HW,2013-01-20 20:03:00,
2013-01-20 15:06:00,49.9,19.5,29.73,WNW,293,9.6,12.1,30,0.00,,,0.00,WUHU216HW,2013-01-20 20:06:00,
2013-01-20 15:08:00,50.5,19.2,29.74,WNW,293,13.4,13.4,29,0.00,,,0.00,WUHU216HW,2013-01-20 20:08:00,
2013-01-20 15:11:00,50.7,19.4,29.74,West,270,7.4,13.4,29,0.00,,,0.00,WUHU216HW,2013-01-20 20:11:00,
2013-01-20 15:12:00,50.7,18.6,29.74,North,0,13.0,13.4,28,0.00,,,0.00,WUHU216HW,2013-01-20 20:12:00,
2013-01-20 15:13:00,50.1,18.0,29.74,WNW,293,17.9,17.9,28,0.00,,,0.00,WUHU216HW,2013-01-20 20:13:00,
2013-01-20 15:16:00,49.0,16.3,29.75,West,270,6.7,17.9,27,0.00,,,0.00,WUHU216HW,2013-01-20 20:16:00,
2013-01-20 15:17:00,48.9,17.0,29.75,West,270,10.7,17.9,28,0.00,,,0.00,WUHU216HW,2013-01-20 20:17:00,
2013-01-20 15:18:00,48.5,16.7,29.75,West,270,7.6,17.9,28,0.00,,,0.00,WUHU216HW,2013-01-20 20:18:00,
2013-01-20 15:21:00,48.1,17.1,29.74,WNW,293,7.2,17.9,29,0.00,,,0.00,WUHU216HW,2013-01-20 20:21:00,
2013-01-20 15:22:00,48.0,17.0,29.74,WNW,293,9.8,17.9,29,0.00,,,0.00,WUHU216HW,2013-01-20 20:22:00,
2013-01-20 15:23:00,48.0,17.8,29.75,WNW,293,10.5,13.4,30,0.00,,,0.00,WUHU216HW,2013-01-20 20:23:00,
2013-01-20 15:26:00,47.8,17.6,29.75,NNW,338,6.5,13.4,30,0.00,,,0.00,WUHU216HW,2013-01-20 20:26:00,
2013-01-20 15:27:00,47.6,17.5,29.75,West,270,6.3,13.4,30,0.00,,,0.00,WUHU216HW,2013-01-20 20:27:00,
2013-01-20 15:28:00,47.6,18.2,29.75,WSW,248,4.3,13.4,31,0.00,,,0.00,WUHU216HW,2013-01-20 20:28:00,
2013-01-20 15:31:00,47.4,17.3,29.75,WSW,248,10.3,11.4,30,0.00,,,0.00,WUHU216HW,2013-01-20 20:31:00,
2013-01-20 15:32:00,47.4,16.5,29.75,West,270,11.4,11.4,29,0.00,,,0.00,WUHU216HW,2013-01-20 20:32:00,
2013-01-20 15:34:00,47.2,16.3,29.75,West,270,9.4,11.4,29,0.00,,,0.00,WUHU216HW,2013-01-20 20:34:00,
2013-01-20 15:36:00,47.2,17.1,29.75,West,270,6.3,11.4,30,0.00,,,0.00,WUHU216HW,2013-01-20 20:36:00,
2013-01-20 15:37:00,47.1,17.0,29.75,West,270,2.2,11.4,30,0.00,,,0.00,WUHU216HW,2013-01-20 20:37:00,
2013-01-20 15:39:00,47.1,17.0,29.76,WSW,248,6.7,11.4,30,0.00,,,0.00,WUHU216HW,2013-01-20 20:39:00,
2013-01-20 15:41:00,47.1,17.8,29.76,WSW,248,3.6,11.4,31,0.00,,,0.00,WUHU216HW,2013-01-20 20:41:00,
2013-01-20 15:42:00,46.9,16.9,29.76,West,270,5.6,11.4,30,0.00,,,0.00,WUHU216HW,2013-01-20 20:42:00,
2013-01-20 15:45:00,46.7,16.7,29.76,West,270,6.0,13.9,30,0.00,,,0.00,WUHU216HW,2013-01-20 20:45:00,
2013-01-20 15:46:00,46.7,17.5,29.76,West,270,9.8,13.9,31,0.00,,,0.00,WUHU216HW,2013-01-20 20:46:00,
2013-01-20 15:47:00,46.5,16.5,29.76,West,270,4.7,13.9,30,0.00,,,0.00,WUHU216HW,2013-01-20 20:47:00,
2013-01-20 15:50:00,46.5,17.3,29.76,West,270,1.8,13.9,31,0.00,,,0.00,WUHU216HW,2013-01-20 20:50:00,
2013-01-20 15:51:00,46.5,17.3,29.77,SW,225,10.1,13.9,31,0.00,,,0.00,WUHU216HW,2013-01-20 20:51:00,
2013-01-20 15:52:00,46.5,17.3,29.77,SW,225,10.1,13.9,31,0.00,,,0.00,WUHU216HW,2013-01-20 20:52:00,
2013-01-20 15:55:00,46.2,16.3,29.76,North,0,7.4,13.4,30,0.00,,,0.00,WUHU216HW,2013-01-20 20:55:00,
2013-01-20 15:57:00,46.3,17.8,29.76,West,270,13.4,13.4,32,0.00,,,0.00,WUHU216HW,2013-01-20 20:57:00,
2013-01-20 15:58:00,46.1,16.8,29.76,WSW,248,4.7,13.4,31,0.00,,,0.00,WUHU216HW,2013-01-20 20:58:00,
2013-01-20 16:01:00,45.9,15.9,29.77,SSW,203,6.3,17.2,30,0.00,,,0.00,WUHU216HW,2013-01-20 21:01:00,
2013-01-20 16:02:00,45.9,15.9,29.77,SSW,203,6.3,17.2,30,0.00,,,0.00,WUHU216HW,2013-01-20 21:02:00,
2013-01-20 16:03:00,45.7,15.8,29.77,West,270,9.2,17.2,30,0.00,,,0.00,WUHU216HW,2013-01-20 21:03:00,
2013-01-20 16:06:00,45.7,16.5,29.77,SSW,203,8.3,17.2,31,0.00,,,0.00,WUHU216HW,2013-01-20 21:06:00,
2013-01-20 16:07:00,45.7,16.5,29.77,West,270,7.8,17.2,31,0.00,,,0.00,WUHU216HW,2013-01-20 21:07:00,
2013-01-20 16:08:00,45.7,16.5,29.77,WSW,248,4.9,17.2,31,0.00,,,0.00,WUHU216HW,2013-01-20 21:08:00,
2013-01-20 16:11:00,45.4,16.3,29.78,West,270,14.3,14.3,31,0.00,,,0.00,WUHU216HW,2013-01-20 21:11:00,
2013-01-20 16:12:00,45.4,16.3,29.78,SW,225,9.4,14.3,31,0.00,,,0.00,WUHU216HW,2013-01-20 21:12:00,
2013-01-20 16:13:00,45.4,16.3,29.78,WNW,293,12.8,14.3,31,0.00,,,0.00,WUHU216HW,2013-01-20 21:13:00,
2013-01-20 16:16:00,45.2,15.3,29.78,West,270,6.3,14.3,30,0.00,,,0.00,WUHU216HW,2013-01-20 21:16:00,
2013-01-20 16:18:00,45.2,16.1,29.78,West,270,3.4,14.3,31,0.00,,,0.00,WUHU216HW,2013-01-20 21:18:00,
2013-01-20 16:21:00,44.8,15.7,29.78,WNW,293,3.4,12.8,31,0.00,,,0.00,WUHU216HW,2013-01-20 21:21:00,
2013-01-20 16:23:00,44.8,15.7,29.79,WNW,293,8.9,10.3,31,0.00,,,0.00,WUHU216HW,2013-01-20 21:23:00,
2013-01-20 16:27:00,44.6,14.8,29.78,WSW,248,10.5,14.3,30,0.00,,,0.00,WUHU216HW,2013-01-20 21:27:00,
2013-01-20 16:28:00,44.5,15.5,29.79,WSW,248,3.4,14.3,31,0.00,,,0.00,WUHU216HW,2013-01-20 21:28:00,
2013-01-20 16:29:00,44.5,15.5,29.79,WSW,248,3.4,14.3,31,0.00,,,0.00,WUHU216HW,2013-01-20 21:29:00,
2013-01-20 16:32:00,44.3,14.6,29.79,WSW,248,13.6,14.3,30,0.00,,,0.00,WUHU216HW,2013-01-20 21:32:00,
2013-01-20 16:33:00,44.3,14.6,29.79,WNW,293,5.8,13.6,30,0.00,,,0.00,WUHU216HW,2013-01-20 21:33:00,
2013-01-20 16:34:00,44.3,14.6,29.79,WNW,293,5.8,13.6,30,0.00,,,0.00,WUHU216HW,2013-01-20 21:34:00,
2013-01-20 16:37:00,44.3,16.1,29.80,West,270,4.7,13.6,32,0.00,,,0.00,WUHU216HW,2013-01-20 21:37:00,
2013-01-20 16:38:00,44.3,16.1,29.80,West,270,4.7,13.6,32,0.00,,,0.00,WUHU216HW,2013-01-20 21:38:00,
2013-01-20 16:39:00,44.1,15.2,29.80,SW,225,10.1,13.6,31,0.00,,,0.00,WUHU216HW,2013-01-20 21:39:00,
2013-01-20 16:43:00,43.9,15.7,29.80,NW,315,7.4,10.1,32,0.00,,,0.00,WUHU216HW,2013-01-20 21:43:00,
2013-01-20 16:44:00,43.9,15.0,29.80,WNW,293,2.9,10.1,31,0.00,,,0.00,WUHU216HW,2013-01-20 21:44:00,
2013-01-20 16:48:00,43.6,16.2,29.81,NW,315,4.5,10.1,33,0.00,,,0.00,WUHU216HW,2013-01-20 21:48:00,
2013-01-20 16:49:00,43.6,16.2,29.81,NW,315,8.5,8.5,33,0.00,,,0.00,WUHU216HW,2013-01-20 21:49:00,
2013-01-20 16:53:00,43.2,16.5,29.81,NW,315,7.6,8.5,34,0.00,,,0.00,WUHU216HW,2013-01-20 21:53:00,
2013-01-20 16:54:00,43.0,17.0,29.82,NW,315,6.5,8.5,35,0.00,,,0.00,WUHU216HW,2013-01-20 21:54:00,
2013-01-20 16:55:00,43.0,17.0,29.82,WNW,293,9.2,9.2,35,0.00,,,0.00,WUHU216HW,2013-01-20 21:55:00,
2013-01-20 16:58:00,42.7,17.4,29.82,North,0,6.3,9.8,36,0.00,,,0.00,WUHU216HW,2013-01-20 21:58:00,
2013-01-20 16:59:00,42.8,17.4,29.82,WNW,293,6.5,9.8,36,0.00,,,0.00,WUHU216HW,2013-01-20 21:59:00,
2013-01-20 17:00:00,42.6,17.2,29.82,WNW,293,9.4,9.8,36,0.00,,,0.00,WUHU216HW,2013-01-20 22:00:00,
2013-01-20 17:03:00,42.4,17.7,29.83,WNW,293,8.9,11.6,37,0.00,,,0.00,WUHU216HW,2013-01-20 22:03:00,
2013-01-20 17:04:00,42.4,17.7,29.83,WNW,293,8.9,11.6,37,0.00,,,0.00,WUHU216HW,2013-01-20 22:04:00,
2013-01-20 17:05:00,42.0,17.3,29.83,NNW,338,7.4,11.6,37,0.00,,,0.00,WUHU216HW,2013-01-20 22:05:00,
2013-01-20 17:09:00,41.9,17.9,29.84,WSW,248,6.9,11.6,38,0.00,,,0.00,WUHU216HW,2013-01-20 22:09:00,
2013-01-20 17:10:00,41.7,17.7,29.84,NW,315,4.3,11.6,38,0.00,,,0.00,WUHU216HW,2013-01-20 22:10:00,
2013-01-20 17:14:00,41.3,18.0,29.83,NNW,338,13.4,13.4,39,0.00,,,0.00,WUHU216HW,2013-01-20 22:14:00,
2013-01-20 17:15:00,41.1,17.8,29.83,North,0,9.4,13.4,39,0.00,,,0.00,WUHU216HW,2013-01-20 22:15:00,
2013-01-20 17:19:00,40.4,17.8,29.84,NNW,338,4.7,13.4,40,0.00,,,0.00,WUHU216HW,2013-01-20 22:19:00,
2013-01-20 17:20:00,40.4,17.8,29.84,WNW,293,9.8,13.4,40,0.00,,,0.00,WUHU216HW,2013-01-20 22:20:00,
2013-01-20 17:24:00,40.1,18.1,29.84,West,270,2.9,9.8,41,0.00,,,0.00,WUHU216HW,2013-01-20 22:24:00,
2013-01-20 17:25:00,39.9,17.9,29.84,NNW,338,4.0,9.8,41,0.00,,,0.00,WUHU216HW,2013-01-20 22:25:00,
2013-01-20 17:26:00,39.9,17.9,29.84,NNW,338,4.0,9.8,41,0.00,,,0.00,WUHU216HW,2013-01-20 22:26:00,
2013-01-20 17:29:00,39.7,17.7,29.84,NNW,338,5.1,9.8,41,0.00,,,0.00,WUHU216HW,2013-01-20 22:29:00,
2013-01-20 17:30:00,39.7,17.7,29.84,NNW,338,5.1,9.8,41,0.00,,,0.00,WUHU216HW,2013-01-20 22:30:00,
2013-01-20 17:31:00,39.5,17.6,29.84,NW,315,7.8,8.9,41,0.00,,,0.00,WUHU216HW,2013-01-20 22:31:00,
2013-01-20 17:34:00,39.2,17.9,29.85,NNW,338,6.3,8.9,42,0.00,,,0.00,WUHU216HW,2013-01-20 22:34:00,
2013-01-20 17:35:00,39.2,17.9,29.85,NNW,338,6.3,8.9,42,0.00,,,0.00,WUHU216HW,2013-01-20 22:35:00,
2013-01-20 17:36:00,39.2,17.9,29.85,NW,315,5.4,8.9,42,0.00,,,0.00,WUHU216HW,2013-01-20 22:36:00,
2013-01-20 17:39:00,39.0,17.7,29.85,North,0,2.9,7.8,42,0.00,,,0.00,WUHU216HW,2013-01-20 22:39:00,
2013-01-20 17:40:00,39.0,17.7,29.85,North,0,2.9,7.8,42,0.00,,,0.00,WUHU216HW,2013-01-20 22:40:00,
2013-01-20 17:41:00,39.0,17.7,29.86,NNW,338,3.6,6.9,42,0.00,,,0.00,WUHU216HW,2013-01-20 22:41:00,
2013-01-20 17:44:00,38.7,17.9,29.86,NW,315,6.9,6.9,43,0.00,,,0.00,WUHU216HW,2013-01-20 22:44:00,
2013-01-20 17:45:00,38.5,17.7,29.86,NNW,338,6.3,6.9,43,0.00,,,0.00,WUHU216HW,2013-01-20 22:45:00,
2013-01-20 17:46:00,38.5,17.7,29.86,NNW,338,6.3,6.9,43,0.00,,,0.00,WUHU216HW,2013-01-20 22:46:00,
2013-01-20 17:49:00,38.4,17.6,29.87,North,0,4.3,6.9,43,0.00,,,0.00,WUHU216HW,2013-01-20 22:49:00,
2013-01-20 17:50:00,38.4,17.7,29.87,NNW,338,4.0,6.9,43,0.00,,,0.00,WUHU216HW,2013-01-20 22:50:00,
2013-01-20 17:51:00,38.4,17.7,29.87,NNW,338,4.0,6.9,43,0.00,,,0.00,WUHU216HW,2013-01-20 22:51:00,
2013-01-20 17:55:00,38.2,17.5,29.87,NW,315,3.4,6.9,43,0.00,,,0.00,WUHU216HW,2013-01-20 22:55:00,
2013-01-20 17:56:00,38.2,18.0,29.87,North,0,4.0,6.9,44,0.00,,,0.00,WUHU216HW,2013-01-20 22:56:00,
2013-01-20 18:00:00,38.0,17.3,29.87,NNW,338,4.7,9.2,43,0.00,,,0.00,WUHU216HW,2013-01-20 23:00:00,
2013-01-20 18:01:00,37.8,17.1,29.87,North,0,4.0,9.2,43,0.00,,,0.00,WUHU216HW,2013-01-20 23:01:00,
2013-01-20 18:02:00,37.8,17.1,29.87,North,0,4.0,9.2,43,0.00,,,0.00,WUHU216HW,2013-01-20 23:02:00,
2013-01-20 18:05:00,37.8,17.1,29.87,NW,315,4.3,9.8,43,0.00,,,0.00,WUHU216HW,2013-01-20 23:05:00,
2013-01-20 18:06:00,37.6,17.0,29.88,NNW,338,6.5,9.8,43,0.00,,,0.00,WUHU216HW,2013-01-20 23:06:00,
2013-01-20 18:07:00,37.6,17.0,29.88,NNW,338,6.5,9.8,43,0.00,,,0.00,WUHU216HW,2013-01-20 23:07:00,
2013-01-20 18:10:00,37.5,16.9,29.88,NW,315,7.4,9.8,43,0.00,,,0.00,WUHU216HW,2013-01-20 23:10:00,
2013-01-20 18:12:00,37.5,16.9,29.88,NNW,338,5.1,9.8,43,0.00,,,0.00,WUHU216HW,2013-01-20 23:12:00,
2013-01-20 18:15:00,37.3,16.7,29.88,North,0,5.8,8.7,43,0.00,,,0.00,WUHU216HW,2013-01-20 23:15:00,
2013-01-20 18:17:00,37.1,16.5,29.89,North,0,6.3,10.7,43,0.00,,,0.00,WUHU216HW,2013-01-20 23:17:00,
2013-01-20 18:20:00,37.0,16.9,29.89,NNW,338,6.9,10.7,44,0.00,,,0.00,WUHU216HW,2013-01-20 23:20:00,
2013-01-20 18:22:00,37.0,16.9,29.89,North,0,5.4,10.7,44,0.00,,,0.00,WUHU216HW,2013-01-20 23:22:00,
2013-01-20 18:23:00,37.0,16.9,29.89,North,0,5.4,10.7,44,0.00,,,0.00,WUHU216HW,2013-01-20 23:23:00,
2013-01-20 18:25:00,36.7,16.6,29.89,West,270,2.9,10.7,44,0.00,,,0.00,WUHU216HW,2013-01-20 23:25:00,
2013-01-20 18:27:00,36.5,16.5,29.89,North,0,3.6,7.2,44,0.00,,,0.00,WUHU216HW,2013-01-20 23:27:00,
2013-01-20 18:28:00,36.5,16.5,29.89,WNW,293,3.4,6.9,44,0.00,,,0.00,WUHU216HW,2013-01-20 23:28:00,
2013-01-20 18:30:00,36.3,16.3,29.89,NW,315,5.8,6.9,44,0.00,,,0.00,WUHU216HW,2013-01-20 23:30:00,
2013-01-20 18:32:00,36.3,16.3,29.89,NW,315,4.7,6.9,44,0.00,,,0.00,WUHU216HW,2013-01-20 23:32:00,
2013-01-20 18:33:00,36.1,16.1,29.89,NNE,23,2.0,6.9,44,0.00,,,0.00,WUHU216HW,2013-01-20 23:33:00,
2013-01-20 18:35:00,35.9,15.9,29.89,NW,315,5.4,6.9,44,0.00,,,0.00,WUHU216HW,2013-01-20 23:35:00,
2013-01-20 18:37:00,35.9,15.9,29.89,West,270,3.8,6.9,44,0.00,,,0.00,WUHU216HW,2013-01-20 23:37:00,
2013-01-20 18:38:00,35.9,15.9,29.89,West,270,3.8,6.9,44,0.00,,,0.00,WUHU216HW,2013-01-20 23:38:00,
2013-01-20 18:40:00,35.8,15.3,29.89,North,0,5.8,6.5,43,0.00,,,0.00,WUHU216HW,2013-01-20 23:40:00,
2013-01-20 18:42:00,35.8,15.3,29.90,WNW,293,3.8,6.5,43,0.00,,,0.00,WUHU216HW,2013-01-20 23:42:00,
2013-01-20 18:43:00,35.8,15.3,29.90,WNW,293,3.8,6.5,43,0.00,,,0.00,WUHU216HW,2013-01-20 23:43:00,
2013-01-20 18:45:00,35.6,15.7,29.90,WNW,293,3.8,6.5,44,0.00,,,0.00,WUHU216HW,2013-01-20 23:45:00,
2013-01-20 18:48:00,35.6,15.7,29.90,North,0,3.8,6.0,44,0.00,,,0.00,WUHU216HW,2013-01-20 23:48:00,
2013-01-20 18:50:00,35.2,15.3,29.90,North,0,4.3,5.4,44,0.00,,,0.00,WUHU216HW,2013-01-20 23:50:00,
2013-01-20 18:53:00,35.2,15.4,29.91,NW,315,6.5,6.5,44,0.00,,,0.00,WUHU216HW,2013-01-20 23:53:00,
2013-01-20 18:54:00,35.1,15.2,29.90,NW,315,6.5,6.5,44,0.00,,,0.00,WUHU216HW,2013-01-20 23:54:00,
2013-01-20 18:56:00,35.0,14.0,29.90,North,0,2.5,6.5,42,0.00,,,0.00,WUHU216HW,2013-01-20 23:56:00,
2013-01-20 18:58:00,35.0,14.0,29.91,NW,315,4.9,6.5,42,0.00,,,0.00,WUHU216HW,2013-01-20 23:58:00,
2013-01-20 18:59:00,35.0,14.0,29.91,NNW,338,5.4,6.5,42,0.00,,,0.00,WUHU216HW,2013-01-20 23:59:00,
2013-01-20 19:01:00,35.0,14.0,29.91,NW,315,7.2,7.2,42,0.00,,,0.00,WUHU216HW,2013-01-21 00:01:00,
2013-01-20 19:03:00,34.8,13.8,29.91,NW,315,4.9,7.2,42,0.00,,,0.00,WUHU216HW,2013-01-21 00:03:00,
2013-01-20 19:04:00,34.8,13.8,29.91,NW,315,4.9,7.2,42,0.00,,,0.00,WUHU216HW,2013-01-21 00:04:00,
2013-01-20 19:06:00,34.6,13.7,29.91,NNW,338,3.4,7.2,42,0.00,,,0.00,WUHU216HW,2013-01-21 00:06:00,
2013-01-20 19:08:00,34.6,13.1,29.91,NNW,338,7.4,7.4,41,0.00,,,0.00,WUHU216HW,2013-01-21 00:08:00,
2013-01-20 19:09:00,34.6,13.1,29.91,NNW,338,7.4,7.4,41,0.00,,,0.00,WUHU216HW,2013-01-21 00:09:00,
2013-01-20 19:11:00,34.6,13.1,29.92,NNE,23,5.4,8.9,41,0.00,,,0.00,WUHU216HW,2013-01-21 00:11:00,
2013-01-20 19:13:00,34.4,12.9,29.92,WNW,293,6.5,8.9,41,0.00,,,0.00,WUHU216HW,2013-01-21 00:13:00,
2013-01-20 19:14:00,34.4,12.9,29.92,WNW,293,6.5,8.9,41,0.00,,,0.00,WUHU216HW,2013-01-21 00:14:00,
2013-01-20 19:16:00,34.4,13.0,29.92,NW,315,7.6,10.1,41,0.00,,,0.00,WUHU216HW,2013-01-21 00:16:00,
2013-01-20 19:19:00,34.2,12.2,29.92,West,270,8.3,10.1,40,0.00,,,0.00,WUHU216HW,2013-01-21 00:19:00,
2013-01-20 19:22:00,34.2,12.8,29.92,NNE,23,6.3,10.1,41,0.00,,,0.00,WUHU216HW,2013-01-21 00:22:00,
2013-01-20 19:24:00,34.2,12.2,29.92,NW,315,4.9,9.2,40,0.00,,,0.00,WUHU216HW,2013-01-21 00:24:00,
2013-01-20 19:27:00,34.2,12.7,29.93,NNE,23,3.4,8.3,41,0.00,,,0.00,WUHU216HW,2013-01-21 00:27:00,
2013-01-20 19:29:00,34.0,12.5,29.93,NNW,338,4.3,7.6,41,0.00,,,0.00,WUHU216HW,2013-01-21 00:29:00,
2013-01-20 19:30:00,34.0,12.5,29.93,NNW,338,5.4,7.6,41,0.00,,,0.00,WUHU216HW,2013-01-21 00:30:00,
2013-01-20 19:32:00,33.8,12.4,29.93,WSW,248,4.9,6.7,41,0.00,,,0.00,WUHU216HW,2013-01-21 00:32:00,
2013-01-20 19:34:00,33.8,12.9,29.93,North,0,6.3,6.7,42,0.00,,,0.00,WUHU216HW,2013-01-21 00:34:00,
2013-01-20 19:35:00,33.8,12.4,29.94,West,270,4.0,6.7,41,0.00,,,0.00,WUHU216HW,2013-01-21 00:35:00,
2013-01-20 19:38:00,33.6,12.2,29.94,NW,315,7.8,11.4,41,0.00,,,0.00,WUHU216HW,2013-01-21 00:38:00,
2013-01-20 19:39:00,33.6,12.2,29.94,North,0,9.4,12.1,41,0.00,,,0.00,WUHU216HW,2013-01-21 00:39:00,
2013-01-20 19:40:00,33.6,12.2,29.94,North,0,9.4,12.1,41,0.00,,,0.00,WUHU216HW,2013-01-21 00:40:00,
2013-01-20 19:43:00,33.6,12.2,29.94,NW,315,4.7,12.1,41,0.00,,,0.00,WUHU216HW,2013-01-21 00:43:00,
2013-01-20 19:44:00,33.4,12.0,29.94,NW,315,5.8,12.1,41,0.00,,,0.00,WUHU216HW,2013-01-21 00:44:00,
2013-01-20 19:45:00,33.4,12.0,29.94,NW,315,5.8,12.1,41,0.00,,,0.00,WUHU216HW,2013-01-21 00:45:00,
2013-01-20 19:48:00,33.3,12.0,29.95,West,270,6.9,12.1,41,0.00,,,0.00,WUHU216HW,2013-01-21 00:48:00,
2013-01-20 19:49:00,33.3,12.0,29.95,WNW,293,4.5,10.5,41,0.00,,,0.00,WUHU216HW,2013-01-21 00:49:00,
2013-01-20 19:50:00,33.3,12.0,29.95,West,270,9.2,10.5,41,0.00,,,0.00,WUHU216HW,2013-01-21 00:50:00,
2013-01-20 19:53:00,33.1,11.8,29.95,North,0,4.7,10.5,41,0.00,,,0.00,WUHU216HW,2013-01-21 00:53:00,
2013-01-20 19:54:00,33.2,11.8,29.95,WSW,248,6.5,9.2,41,0.00,,,0.00,WUHU216HW,2013-01-21 00:54:00,
2013-01-20 19:55:00,33.2,11.8,29.95,WSW,248,6.5,9.2,41,0.00,,,0.00,WUHU216HW,2013-01-21 00:55:00,
2013-01-20 19:58:00,33.0,11.6,29.95,NW,315,5.1,9.2,41,0.00,,,0.00,WUHU216HW,2013-01-21 00:58:00,
2013-01-20 19:59:00,33.0,12.2,29.95,WNW,293,15.7,15.7,42,0.00,,,0.00,WUHU216HW,2013-01-21 00:59:00,
2013-01-20 20:00:00,33.0,11.6,29.95,West,270,8.7,15.7,41,0.00,,,0.00,WUHU216HW,2013-01-21 01:00:00,
2013-01-20 20:03:00,33.0,12.2,29.96,NW,315,6.9,15.7,42,0.00,,,0.00,WUHU216HW,2013-01-21 01:03:00,
2013-01-20 20:04:00,33.0,11.6,29.95,WSW,248,10.1,15.7,41,0.00,,,0.00,WUHU216HW,2013-01-21 01:04:00,
2013-01-20 20:05:00,32.8,11.5,29.96,NW,315,5.4,15.7,41,0.00,,,0.00,WUHU216HW,2013-01-21 01:05:00,
2013-01-20 20:08:00,32.6,11.3,29.95,WSW,248,4.0,15.7,41,0.00,,,0.00,WUHU216HW,2013-01-21 01:08:00,
2013-01-20 20:10:00,32.6,11.3,29.96,NW,315,9.2,10.5,41,0.00,,,0.00,WUHU216HW,2013-01-21 01:10:00,
2013-01-20 20:13:00,32.6,11.3,29.96,WNW,293,4.7,10.5,41,0.00,,,0.00,WUHU216HW,2013-01-21 01:13:00,
2013-01-20 20:14:00,32.5,11.2,29.96,WNW,293,4.9,10.5,41,0.00,,,0.00,WUHU216HW,2013-01-21 01:14:00,
2013-01-20 20:15:00,32.5,11.2,29.96,WNW,293,4.7,10.5,41,0.00,,,0.00,WUHU216HW,2013-01-21 01:15:00,
2013-01-20 20:16:00,32.5,11.2,29.96,WNW,293,4.7,9.2,41,0.00,,,0.00,WUHU216HW,2013-01-21 01:16:00,
2013-01-20 20:19:00,32.3,11.1,29.96,WNW,293,5.4,9.2,41,0.00,,,0.00,WUHU216HW,2013-01-21 01:19:00,
2013-01-20 20:20:00,32.3,11.6,29.95,WNW,293,2.2,8.9,42,0.00,,,0.00,WUHU216HW,2013-01-21 01:20:00,
2013-01-20 20:21:00,32.3,11.1,29.95,West,270,4.9,8.9,41,0.00,,,0.00,WUHU216HW,2013-01-21 01:21:00,
2013-01-20 20:24:00,32.4,11.6,29.96,NNE,23,2.0,13.4,42,0.00,,,0.00,WUHU216HW,2013-01-21 01:24:00,
2013-01-20 20:25:00,32.4,11.6,29.96,WNW,293,7.6,13.4,42,0.00,,,0.00,WUHU216HW,2013-01-21 01:25:00,
2013-01-20 20:26:00,32.4,11.6,29.96,WNW,293,7.6,13.4,42,0.00,,,0.00,WUHU216HW,2013-01-21 01:26:00,
2013-01-20 20:27:00,32.2,11.5,29.96,WNW,293,7.6,13.4,42,0.00,,,0.00,WUHU216HW,2013-01-21 01:27:00,
2013-01-20 20:29:00,32.2,11.5,29.97,NNW,338,6.9,13.4,42,0.00,,,0.00,WUHU216HW,2013-01-21 01:29:00,
2013-01-20 20:31:00,32.2,11.5,29.97,NNW,338,6.3,13.4,42,0.00,,,0.00,WUHU216HW,2013-01-21 01:31:00,
2013-01-20 20:32:00,32.0,11.3,29.97,West,270,5.4,8.9,42,0.00,,,0.00,WUHU216HW,2013-01-21 01:32:00,
2013-01-20 20:34:00,32.0,11.8,29.97,WNW,293,5.8,8.9,43,0.00,,,0.00,WUHU216HW,2013-01-21 01:34:00,
2013-01-20 20:36:00,32.0,11.9,29.97,West,270,1.8,8.9,43,0.00,,,0.00,WUHU216HW,2013-01-21 01:36:00,
2013-01-20 20:37:00,32.0,11.9,29.97,West,270,7.6,8.9,43,0.00,,,0.00,WUHU216HW,2013-01-21 01:37:00,
2013-01-20 20:39:00,31.8,11.7,29.97,NNW,338,3.6,7.6,43,0.00,,,0.00,WUHU216HW,2013-01-21 01:39:00,
2013-01-20 20:41:00,31.8,12.2,29.97,WNW,293,7.6,7.6,44,0.00,,,0.00,WUHU216HW,2013-01-21 01:41:00,
2013-01-20 20:42:00,31.8,12.2,29.97,NW,315,3.4,7.6,44,0.00,,,0.00,WUHU216HW,2013-01-21 01:42:00,
2013-01-20 20:44:00,31.7,12.1,29.97,North,0,5.4,7.6,44,0.00,,,0.00,WUHU216HW,2013-01-21 01:44:00,
2013-01-20 20:46:00,31.7,12.1,29.97,WSW,248,9.4,9.4,44,0.00,,,0.00,WUHU216HW,2013-01-21 01:46:00,
2013-01-20 20:47:00,31.7,12.1,29.97,NW,315,7.6,9.4,44,0.00,,,0.00,WUHU216HW,2013-01-21 01:47:00,
2013-01-20 20:49:00,31.7,12.2,29.97,North,0,3.1,9.4,44,0.00,,,0.00,WUHU216HW,2013-01-21 01:49:00,
2013-01-20 20:51:00,31.8,12.7,29.98,West,270,8.9,9.4,45,0.00,,,0.00,WUHU216HW,2013-01-21 01:51:00,
2013-01-20 20:52:00,31.6,12.5,29.98,NNW,338,4.0,9.4,45,0.00,,,0.00,WUHU216HW,2013-01-21 01:52:00,
2013-01-20 20:54:00,31.6,12.5,29.98,WNW,293,6.7,9.4,45,0.00,,,0.00,WUHU216HW,2013-01-21 01:54:00,
2013-01-20 20:56:00,31.4,12.3,29.98,WNW,293,7.6,8.9,45,0.00,,,0.00,WUHU216HW,2013-01-21 01:56:00,
2013-01-20 20:58:00,31.4,12.3,29.98,NNW,338,3.4,8.9,45,0.00,,,0.00,WUHU216HW,2013-01-21 01:58:00,
2013-01-20 20:59:00,31.4,12.3,29.99,NNW,338,4.7,8.9,45,0.00,,,0.00,WUHU216HW,2013-01-21 01:59:00,
2013-01-20 21:02:00,31.2,12.2,29.99,North,0,3.4,7.6,45,0.00,,,0.00,WUHU216HW,2013-01-21 02:02:00,
2013-01-20 21:03:00,31.2,12.7,29.99,NW,315,4.0,7.6,46,0.00,,,0.00,WUHU216HW,2013-01-21 02:03:00,
2013-01-20 21:04:00,31.0,12.5,29.99,North,0,4.0,7.6,46,0.00,,,0.00,WUHU216HW,2013-01-21 02:04:00,
2013-01-20 21:05:00,31.0,12.5,29.99,North,0,4.0,7.6,46,0.00,,,0.00,WUHU216HW,2013-01-21 02:05:00,
2013-01-20 21:07:00,31.0,12.0,29.99,North,0,4.5,6.5,45,0.00,,,0.00,WUHU216HW,2013-01-21 02:07:00,
2013-01-20 21:08:00,31.0,12.5,29.99,WNW,293,4.9,6.5,46,0.00,,,0.00,WUHU216HW,2013-01-21 02:08:00,
2013-01-20 21:09:00,31.0,12.5,29.99,North,0,4.3,6.5,46,0.00,,,0.00,WUHU216HW,2013-01-21 02:09:00,
2013-01-20 21:10:00,31.0,12.0,29.99,WNW,293,6.3,6.5,45,0.00,,,0.00,WUHU216HW,2013-01-21 02:10:00,
2013-01-20 21:13:00,30.9,12.4,29.99,North,0,6.9,6.9,46,0.00,,,0.00,WUHU216HW,2013-01-21 02:13:00,
2013-01-20 21:15:00,30.9,12.4,29.99,North,0,3.6,7.6,46,0.00,,,0.00,WUHU216HW,2013-01-21 02:15:00,
2013-01-20 21:18:00,30.9,12.4,29.99,NNW,338,4.0,7.6,46,0.00,,,0.00,WUHU216HW,2013-01-21 02:18:00,
2013-01-20 21:20:00,30.7,12.2,29.99,WNW,293,3.6,7.6,46,0.00,,,0.00,WUHU216HW,2013-01-21 02:20:00,
2013-01-20 21:21:00,30.7,12.2,29.99,WNW,293,3.6,7.6,46,0.00,,,0.00,WUHU216HW,2013-01-21 02:21:00,
2013-01-20 21:23:00,30.7,12.2,29.98,WNW,293,5.6,7.6,46,0.00,,,0.00,WUHU216HW,2013-01-21 02:23:00,
2013-01-20 21:25:00,30.5,12.0,29.98,WNW,293,3.4,8.7,46,0.00,,,0.00,WUHU216HW,2013-01-21 02:25:00,
2013-01-20 21:26:00,30.5,12.0,29.98,WNW,293,3.4,8.7,46,0.00,,,0.00,WUHU216HW,2013-01-21 02:26:00,
2013-01-20 21:28:00,30.5,12.0,29.99,NW,315,5.8,8.7,46,0.00,,,0.00,WUHU216HW,2013-01-21 02:28:00,
2013-01-20 21:29:00,30.5,12.0,29.98,WNW,293,5.8,8.7,46,0.00,,,0.00,WUHU216HW,2013-01-21 02:29:00,
2013-01-20 21:30:00,30.3,11.9,29.99,West,270,6.0,8.7,46,0.00,,,0.00,WUHU216HW,2013-01-21 02:30:00,
2013-01-20 21:31:00,30.3,12.4,29.98,North,0,8.5,8.7,47,0.00,,,0.00,WUHU216HW,2013-01-21 02:31:00,
2013-01-20 21:33:00,30.3,11.9,29.99,NNW,338,3.4,8.7,46,0.00,,,0.00,WUHU216HW,2013-01-21 02:33:00,
2013-01-20 21:34:00,30.3,11.9,29.99,NNW,338,3.4,8.7,46,0.00,,,0.00,WUHU216HW,2013-01-21 02:34:00,
2013-01-20 21:35:00,30.3,12.4,29.98,West,270,5.1,8.5,47,0.00,,,0.00,WUHU216HW,2013-01-21 02:35:00,
2013-01-20 21:37:00,30.3,12.4,29.98,NW,315,5.4,8.5,47,0.00,,,0.00,WUHU216HW,2013-01-21 02:37:00,
2013-01-20 21:38:00,30.1,12.2,29.98,North,0,4.7,8.5,47,0.00,,,0.00,WUHU216HW,2013-01-21 02:38:00,
2013-01-20 21:39:00,30.1,12.2,29.98,North,0,4.7,8.5,47,0.00,,,0.00,WUHU216HW,2013-01-21 02:39:00,
2013-01-20 21:40:00,30.1,12.2,29.99,NNW,338,4.3,7.8,47,0.00,,,0.00,WUHU216HW,2013-01-21 02:40:00,
2013-01-20 21:42:00,30.1,12.2,29.99,NNW,338,4.3,7.8,47,0.00,,,0.00,WUHU216HW,2013-01-21 02:42:00,
2013-01-20 21:43:00,30.0,12.1,29.99,NW,315,4.9,7.8,47,0.00,,,0.00,WUHU216HW,2013-01-21 02:43:00,
2013-01-20 21:44:00,30.0,12.1,29.99,NW,315,4.9,7.8,47,0.00,,,0.00,WUHU216HW,2013-01-21 02:44:00,
2013-01-20 21:45:00,30.0,12.1,29.99,NNW,338,5.8,7.8,47,0.00,,,0.00,WUHU216HW,2013-01-21 02:45:00,
2013-01-20 21:47:00,30.0,12.1,29.99,NNW,338,6.5,7.8,47,0.00,,,0.00,WUHU216HW,2013-01-21 02:47:00,
2013-01-20 21:48:00,30.0,12.1,29.99,NW,315,5.8,7.8,47,0.00,,,0.00,WUHU216HW,2013-01-21 02:48:00,
2013-01-20 21:49:00,30.0,12.1,29.99,NW,315,5.8,7.8,47,0.00,,,0.00,WUHU216HW,2013-01-21 02:49:00,
2013-01-20 21:51:00,30.0,12.1,29.99,NNW,338,2.2,6.5,47,0.00,,,0.00,WUHU216HW,2013-01-21 02:51:00,
2013-01-20 21:52:00,29.8,11.9,29.99,NNW,338,3.6,6.5,47,0.00,,,0.00,WUHU216HW,2013-01-21 02:52:00,
2013-01-20 21:53:00,29.8,11.9,29.99,North,0,3.4,6.5,47,0.00,,,0.00,WUHU216HW,2013-01-21 02:53:00,
2013-01-20 21:54:00,29.8,11.9,29.99,North,0,3.4,6.5,47,0.00,,,0.00,WUHU216HW,2013-01-21 02:54:00,
2013-01-20 21:56:00,29.8,12.4,29.99,North,0,3.6,6.5,48,0.00,,,0.00,WUHU216HW,2013-01-21 02:56:00,
2013-01-20 21:58:00,29.6,12.2,29.99,NW,315,6.3,8.7,48,0.00,,,0.00,WUHU216HW,2013-01-21 02:58:00,
2013-01-20 22:00:00,29.6,12.2,29.99,NNW,338,6.9,8.7,48,0.00,,,0.00,WUHU216HW,2013-01-21 03:00:00,
2013-01-20 22:01:00,29.6,12.2,29.99,North,0,3.6,8.7,48,0.00,,,0.00,WUHU216HW,2013-01-21 03:01:00,
2013-01-20 22:03:00,29.6,12.2,30.00,NNW,338,4.9,8.7,48,0.00,,,0.00,WUHU216HW,2013-01-21 03:03:00,
2013-01-20 22:05:00,29.6,12.2,30.00,NW,315,9.8,9.8,48,0.00,,,0.00,WUHU216HW,2013-01-21 03:05:00,
2013-01-20 22:06:00,29.4,12.5,30.00,NNW,338,5.8,9.8,49,0.00,,,0.00,WUHU216HW,2013-01-21 03:06:00,
2013-01-20 22:08:00,29.4,12.0,30.00,NNW,338,9.8,9.8,48,0.00,,,0.00,WUHU216HW,2013-01-21 03:08:00,
2013-01-20 22:10:00,29.2,12.3,29.99,North,0,4.7,9.8,49,0.00,,,0.00,WUHU216HW,2013-01-21 03:10:00,
2013-01-20 22:11:00,29.2,12.3,30.00,NW,315,5.1,9.8,49,0.00,,,0.00,WUHU216HW,2013-01-21 03:11:00,
2013-01-20 22:13:00,29.2,12.3,30.00,WNW,293,9.2,10.1,49,0.00,,,0.00,WUHU216HW,2013-01-21 03:13:00,
2013-01-20 22:15:00,29.2,12.3,30.00,North,0,9.8,10.1,49,0.00,,,0.00,WUHU216HW,2013-01-21 03:15:00,
2013-01-20 22:17:00,29.1,12.2,30.00,NW,315,3.4,10.1,49,0.00,,,0.00,WUHU216HW,2013-01-21 03:17:00,
2013-01-20 22:18:00,29.1,12.2,30.00,North,0,2.9,10.1,49,0.00,,,0.00,WUHU216HW,2013-01-21 03:18:00,
2013-01-20 22:19:00,29.1,12.2,30.00,North,0,2.9,10.1,49,0.00,,,0.00,WUHU216HW,2013-01-21 03:19:00,
2013-01-20 22:20:00,28.9,12.0,30.00,NW,315,7.8,10.1,49,0.00,,,0.00,WUHU216HW,2013-01-21 03:20:00,
2013-01-20 22:22:00,28.9,12.0,30.00,NNW,338,3.4,9.8,49,0.00,,,0.00,WUHU216HW,2013-01-21 03:22:00,
2013-01-20 22:24:00,28.9,12.0,30.00,NW,315,5.4,9.8,49,0.00,,,0.00,WUHU216HW,2013-01-21 03:24:00,
2013-01-20 22:25:00,28.9,12.0,30.00,NNW,338,4.9,8.9,49,0.00,,,0.00,WUHU216HW,2013-01-21 03:25:00,
2013-01-20 22:27:00,28.9,12.0,30.00,NNW,338,5.8,8.9,49,0.00,,,0.00,WUHU216HW,2013-01-21 03:27:00,
2013-01-20 22:29:00,28.9,12.0,30.00,NW,315,4.0,8.9,49,0.00,,,0.00,WUHU216HW,2013-01-21 03:29:00,
2013-01-20 22:30:00,28.9,12.0,30.00,NNW,338,4.0,8.9,49,0.00,,,0.00,WUHU216HW,2013-01-21 03:30:00,
2013-01-20 22:32:00,28.7,12.3,30.00,WNW,293,6.7,7.4,50,0.00,,,0.00,WUHU216HW,2013-01-21 03:32:00,
2013-01-20 22:34:00,28.7,11.9,30.00,NW,315,6.5,7.4,49,0.00,,,0.00,WUHU216HW,2013-01-21 03:34:00,
2013-01-20 22:35:00,28.7,11.9,30.00,NNW,338,5.4,6.9,49,0.00,,,0.00,WUHU216HW,2013-01-21 03:35:00,
2013-01-20 22:37:00,28.5,11.7,30.00,North,0,4.0,6.9,49,0.00,,,0.00,WUHU216HW,2013-01-21 03:37:00,
2013-01-20 22:39:00,28.5,11.7,30.00,NNW,338,5.4,6.9,49,0.00,,,0.00,WUHU216HW,2013-01-21 03:39:00,
2013-01-20 22:41:00,28.5,12.1,30.00,NW,315,6.5,6.9,50,0.00,,,0.00,WUHU216HW,2013-01-21 03:41:00,
2013-01-20 22:43:00,28.5,11.7,30.00,WNW,293,3.6,6.9,49,0.00,,,0.00,WUHU216HW,2013-01-21 03:43:00,
2013-01-20 22:44:00,28.5,11.7,30.00,North,0,2.9,6.9,49,0.00,,,0.00,WUHU216HW,2013-01-21 03:44:00,
2013-01-20 22:46:00,28.3,12.0,30.01,WNW,293,4.7,6.7,50,0.00,,,0.00,WUHU216HW,2013-01-21 03:46:00,
2013-01-20 22:48:00,28.3,11.5,30.01,North,0,7.2,7.8,49,0.00,,,0.00,WUHU216HW,2013-01-21 03:48:00,
2013-01-20 22:49:00,28.3,11.5,30.01,NNW,338,5.8,7.8,49,0.00,,,0.00,WUHU216HW,2013-01-21 03:49:00,
2013-01-20 22:51:00,28.3,11.5,30.01,North,0,3.6,7.8,49,0.00,,,0.00,WUHU216HW,2013-01-21 03:51:00,
2013-01-20 22:53:00,28.3,11.5,30.01,NNW,338,6.5,7.8,49,0.00,,,0.00,WUHU216HW,2013-01-21 03:53:00,
2013-01-20 22:54:00,28.2,11.4,30.01,NNW,338,6.7,7.8,49,0.00,,,0.00,WUHU216HW,2013-01-21 03:54:00,
2013-01-20 22:56:00,28.2,10.9,30.01,NW,315,4.0,7.8,48,0.00,,,0.00,WUHU216HW,2013-01-21 03:56:00,
2013-01-20 22:58:00,28.2,10.9,30.01,NW,315,2.9,6.7,48,0.00,,,0.00,WUHU216HW,2013-01-21 03:58:00,
2013-01-20 22:59:00,28.2,10.9,30.01,NNW,338,5.8,6.7,48,0.00,,,0.00,WUHU216HW,2013-01-21 03:59:00,
2013-01-20 23:02:00,28.2,10.9,30.01,NW,315,2.2,6.7,48,0.00,,,0.00,WUHU216HW,2013-01-21 04:02:00,
2013-01-20 23:03:00,28.0,10.7,30.01,NNW,338,3.8,5.8,48,0.00,,,0.00,WUHU216HW,2013-01-21 04:03:00,
2013-01-20 23:04:00,28.0,10.7,30.01,NNW,338,5.6,5.8,48,0.00,,,0.00,WUHU216HW,2013-01-21 04:04:00,
2013-01-20 23:05:00,28.0,11.2,30.01,WNW,293,4.7,5.8,49,0.00,,,0.00,WUHU216HW,2013-01-21 04:05:00,
2013-01-20 23:07:00,27.8,11.0,30.01,NNW,338,3.6,5.8,49,0.00,,,0.00,WUHU216HW,2013-01-21 04:07:00,
2013-01-20 23:08:00,27.8,11.0,30.01,West,270,4.3,5.6,49,0.00,,,0.00,WUHU216HW,2013-01-21 04:08:00,
2013-01-20 23:09:00,27.8,10.5,30.01,North,0,4.9,5.6,48,0.00,,,0.00,WUHU216HW,2013-01-21 04:09:00,
2013-01-20 23:10:00,27.8,10.5,30.01,NNW,338,4.0,5.6,48,0.00,,,0.00,WUHU216HW,2013-01-21 04:10:00,
2013-01-20 23:13:00,27.8,11.0,30.01,WNW,293,3.4,5.6,49,0.00,,,0.00,WUHU216HW,2013-01-21 04:13:00,
2013-01-20 23:14:00,27.6,10.8,30.01,NNW,338,2.0,4.9,49,0.00,,,0.00,WUHU216HW,2013-01-21 04:14:00,
2013-01-20 23:15:00,27.6,10.8,30.01,NW,315,3.4,4.9,49,0.00,,,0.00,WUHU216HW,2013-01-21 04:15:00,
2013-01-20 23:18:00,27.6,10.8,30.02,NW,315,4.7,4.9,49,0.00,,,0.00,WUHU216HW,2013-01-21 04:18:00,
2013-01-20 23:19:00,27.4,10.7,30.02,WNW,293,4.5,4.9,49,0.00,,,0.00,WUHU216HW,2013-01-21 04:19:00,
2013-01-20 23:20:00,27.4,10.7,30.02,NW,315,4.0,8.5,49,0.00,,,0.00,WUHU216HW,2013-01-21 04:20:00,
2013-01-20 23:23:00,27.4,10.7,30.02,NW,315,7.4,8.5,49,0.00,,,0.00,WUHU216HW,2013-01-21 04:23:00,
2013-01-20 23:24:00,27.4,10.7,30.02,WNW,293,7.6,8.5,49,0.00,,,0.00,WUHU216HW,2013-01-21 04:24:00,
2013-01-20 23:25:00,27.4,11.1,30.01,West,270,4.5,8.5,50,0.00,,,0.00,WUHU216HW,2013-01-21 04:25:00,
2013-01-20 23:28:00,27.4,10.2,30.01,WNW,293,5.1,11.4,48,0.00,,,0.00,WUHU216HW,2013-01-21 04:28:00,
2013-01-20 23:29:00,27.4,10.2,30.01,NNW,338,6.0,11.4,48,0.00,,,0.00,WUHU216HW,2013-01-21 04:29:00,
2013-01-20 23:30:00,27.4,10.7,30.01,WNW,293,5.4,11.4,49,0.00,,,0.00,WUHU216HW,2013-01-21 04:30:00,
2013-01-20 23:33:00,27.3,10.1,30.01,NW,315,3.8,11.4,48,0.00,,,0.00,WUHU216HW,2013-01-21 04:33:00,
2013-01-20 23:34:00,27.3,10.6,30.01,WNW,293,4.0,11.4,49,0.00,,,0.00,WUHU216HW,2013-01-21 04:34:00,
2013-01-20 23:35:00,27.3,10.1,30.01,North,0,6.9,11.4,48,0.00,,,0.00,WUHU216HW,2013-01-21 04:35:00,
2013-01-20 23:38:00,27.3,10.1,30.01,North,0,6.9,6.9,48,0.00,,,0.00,WUHU216HW,2013-01-21 04:38:00,
2013-01-20 23:39:00,27.3,10.1,30.01,North,0,6.9,6.9,48,0.00,,,0.00,WUHU216HW,2013-01-21 04:39:00,
2013-01-20 23:40:00,27.3,10.1,30.01,North,0,6.9,6.9,48,0.00,,,0.00,WUHU216HW,2013-01-21 04:40:00,
2013-01-20 23:43:00,27.3,10.1,30.01,North,0,6.9,6.9,48,0.00,,,0.00,WUHU216HW,2013-01-21 04:43:00,
2013-01-20 23:44:00,27.3,10.1,30.01,North,0,6.9,6.9,48,0.00,,,0.00,WUHU216HW,2013-01-21 04:44:00,